Time,TemperatureF,DewpointF,PressureIn,WindDirection,WindDirectionDegrees,WindSpeedMPH,WindSpeedGustMPH,Humidity,HourlyPrecipIn,Conditions,Clouds,dailyrainin,SoftwareType,DateUTC
2013-07-08 00:01:00,72.2,67.4,29.83,North,0,0.0,0.0,85,0.00,,,0.00,WUHU216HW,2013-07-08 04:01:00,
2013-07-08 00:06:00,72.7,68.3,29.83,North,0,0.0,0.0,86,0.00,,,0.00,WUHU216HW,2013-07-08 04:06:00,
2013-07-08 00:11:00,73.1,69.3,29.83,North,0,0.0,0.0,88,0.00,,,0.00,WUHU216HW,2013-07-08 04:11:00,
2013-07-08 00:12:00,73.1,69.7,29.84,North,0,0.0,0.0,89,0.00,,,0.00,WUHU216HW,2013-07-08 04:12:00,
2013-07-08 00:16:00,73.8,70.4,29.83,North,0,0.0,0.0,89,0.00,,,0.00,WUHU216HW,2013-07-08 04:16:00,
2013-07-08 00:17:00,73.8,70.4,29.83,North,0,0.0,0.0,89,0.00,,,0.00,WUHU216HW,2013-07-08 04:17:00,
2013-07-08 00:21:00,74.3,69.9,29.83,North,0,0.0,0.0,86,0.00,,,0.00,WUHU216HW,2013-07-08 04:21:00,
2013-07-08 00:22:00,74.3,69.9,29.83,North,0,0.0,0.0,86,0.00,,,0.00,WUHU216HW,2013-07-08 04:22:00,
2013-07-08 00:23:00,74.5,69.8,29.83,North,0,0.0,0.0,85,0.00,,,0.00,WUHU216HW,2013-07-08 04:23:00,
2013-07-08 00:26:00,74.7,69.6,29.83,North,0,0.0,0.0,84,0.00,,,0.00,WUHU216HW,2013-07-08 04:26:00,
2013-07-08 00:27:00,74.7,69.6,29.83,North,0,0.0,0.0,84,0.00,,,0.00,WUHU216HW,2013-07-08 04:27:00,
2013-07-08 00:28:00,74.7,69.2,29.83,North,0,0.0,0.0,83,0.00,,,0.00,WUHU216HW,2013-07-08 04:28:00,
2013-07-08 00:32:00,74.9,69.1,29.83,North,0,0.0,0.0,82,0.00,,,0.00,WUHU216HW,2013-07-08 04:32:00,
2013-07-08 00:33:00,75.1,69.0,29.83,North,0,0.0,0.0,81,0.00,,,0.00,WUHU216HW,2013-07-08 04:33:00,
2013-07-08 00:37:00,75.1,69.0,29.83,North,0,0.0,0.0,81,0.00,,,0.00,WUHU216HW,2013-07-08 04:37:00,
2013-07-08 00:38:00,75.2,68.8,29.83,North,0,0.0,0.0,80,0.00,,,0.00,WUHU216HW,2013-07-08 04:38:00,
2013-07-08 00:42:00,75.2,68.8,29.84,North,0,0.0,0.0,80,0.00,,,0.00,WUHU216HW,2013-07-08 04:42:00,
2013-07-08 00:43:00,75.2,68.4,29.84,North,0,0.0,0.0,79,0.00,,,0.00,WUHU216HW,2013-07-08 04:43:00,
2013-07-08 00:47:00,75.2,68.0,29.84,North,0,0.0,0.0,78,0.00,,,0.00,WUHU216HW,2013-07-08 04:47:00,
2013-07-08 00:48:00,75.4,68.1,29.83,North,0,0.0,0.0,78,0.00,,,0.00,WUHU216HW,2013-07-08 04:48:00,
2013-07-08 00:49:00,75.4,68.1,29.83,North,0,0.0,0.0,78,0.00,,,0.00,WUHU216HW,2013-07-08 04:49:00,
2013-07-08 00:52:00,75.4,68.1,29.84,North,0,0.0,0.0,78,0.00,,,0.00,WUHU216HW,2013-07-08 04:52:00,
2013-07-08 00:53:00,75.4,68.1,29.84,North,0,0.0,0.0,78,0.00,,,0.00,WUHU216HW,2013-07-08 04:53:00,
2013-07-08 00:54:00,75.4,68.1,29.84,North,0,0.0,0.0,78,0.00,,,0.00,WUHU216HW,2013-07-08 04:54:00,
2013-07-08 00:58:00,75.4,67.8,29.83,North,0,0.0,0.0,77,0.00,,,0.00,WUHU216HW,2013-07-08 04:58:00,
2013-07-08 00:59:00,75.4,67.8,29.84,North,0,0.0,0.0,77,0.00,,,0.00,WUHU216HW,2013-07-08 04:59:00,
2013-07-08 01:03:00,75.4,67.8,29.83,North,0,0.0,0.0,77,0.00,,,0.00,WUHU216HW,2013-07-08 05:03:00,
2013-07-08 01:04:00,75.4,67.8,29.84,North,0,0.0,0.0,77,0.00,,,0.00,WUHU216HW,2013-07-08 05:04:00,
2013-07-08 01:08:00,75.4,68.1,29.83,North,0,0.0,0.0,78,0.00,,,0.00,WUHU216HW,2013-07-08 05:08:00,
2013-07-08 01:09:00,75.2,68.0,29.84,North,0,0.0,0.0,78,0.00,,,0.00,WUHU216HW,2013-07-08 05:09:00,
2013-07-08 01:13:00,75.2,68.0,29.83,North,0,0.0,0.0,78,0.00,,,0.00,WUHU216HW,2013-07-08 05:13:00,
2013-07-08 01:14:00,75.2,68.0,29.83,North,0,0.0,0.0,78,0.00,,,0.00,WUHU216HW,2013-07-08 05:14:00,
2013-07-08 01:18:00,75.2,68.0,29.83,North,0,0.0,0.0,78,0.00,,,0.00,WUHU216HW,2013-07-08 05:18:00,
2013-07-08 01:19:00,75.2,68.0,29.83,North,0,0.0,0.0,78,0.00,,,0.00,WUHU216HW,2013-07-08 05:19:00,
2013-07-08 01:23:00,75.2,68.0,29.83,North,0,0.0,0.0,78,0.00,,,0.00,WUHU216HW,2013-07-08 05:23:00,
2013-07-08 01:24:00,75.1,67.8,29.83,North,0,0.0,0.0,78,0.00,,,0.00,WUHU216HW,2013-07-08 05:24:00,
2013-07-08 01:25:00,75.1,67.8,29.83,North,0,0.0,0.0,78,0.00,,,0.00,WUHU216HW,2013-07-08 05:25:00,
2013-07-08 01:28:00,75.1,67.8,29.83,North,0,0.0,0.0,78,0.00,,,0.00,WUHU216HW,2013-07-08 05:28:00,
2013-07-08 01:29:00,75.1,67.8,29.83,North,0,0.0,0.0,78,0.00,,,0.00,WUHU216HW,2013-07-08 05:29:00,
2013-07-08 01:30:00,75.1,67.8,29.83,North,0,0.0,0.0,78,0.00,,,0.00,WUHU216HW,2013-07-08 05:30:00,
2013-07-08 01:33:00,75.1,67.8,29.83,North,0,0.0,0.0,78,0.00,,,0.00,WUHU216HW,2013-07-08 05:33:00,
2013-07-08 01:34:00,75.1,67.8,29.83,North,0,0.0,0.0,78,0.00,,,0.00,WUHU216HW,2013-07-08 05:34:00,
2013-07-08 01:35:00,75.1,67.8,29.83,North,0,0.0,0.0,78,0.00,,,0.00,WUHU216HW,2013-07-08 05:35:00,
2013-07-08 01:38:00,75.1,68.2,29.83,North,0,0.0,0.0,79,0.00,,,0.00,WUHU216HW,2013-07-08 05:38:00,
2013-07-08 01:39:00,75.1,68.2,29.83,North,0,0.0,0.0,79,0.00,,,0.00,WUHU216HW,2013-07-08 05:39:00,
2013-07-08 01:40:00,75.1,68.2,29.83,North,0,0.0,0.0,79,0.00,,,0.00,WUHU216HW,2013-07-08 05:40:00,
2013-07-08 01:43:00,74.9,68.1,29.83,North,0,0.0,0.0,79,0.00,,,0.00,WUHU216HW,2013-07-08 05:43:00,
2013-07-08 01:44:00,74.9,68.1,29.83,North,0,0.0,0.0,79,0.00,,,0.00,WUHU216HW,2013-07-08 05:44:00,
2013-07-08 01:45:00,74.9,68.1,29.83,North,0,0.0,0.0,79,0.00,,,0.00,WUHU216HW,2013-07-08 05:45:00,
2013-07-08 01:49:00,74.9,68.1,29.83,North,0,0.0,0.0,79,0.00,,,0.00,WUHU216HW,2013-07-08 05:49:00,
2013-07-08 01:50:00,74.9,68.1,29.83,North,0,0.0,0.0,79,0.00,,,0.00,WUHU216HW,2013-07-08 05:50:00,
2013-07-08 01:51:00,74.7,67.9,29.83,North,0,0.0,0.0,79,0.00,,,0.00,WUHU216HW,2013-07-08 05:51:00,
2013-07-08 01:54:00,74.7,67.9,29.83,North,0,0.0,0.0,79,0.00,,,0.00,WUHU216HW,2013-07-08 05:54:00,
2013-07-08 01:55:00,74.7,67.9,29.83,North,0,0.0,0.0,79,0.00,,,0.00,WUHU216HW,2013-07-08 05:55:00,
2013-07-08 01:56:00,74.7,67.9,29.83,North,0,0.0,0.0,79,0.00,,,0.00,WUHU216HW,2013-07-08 05:56:00,
2013-07-08 01:59:00,74.5,67.7,29.83,North,0,0.0,0.0,79,0.00,,,0.00,WUHU216HW,2013-07-08 05:59:00,
2013-07-08 02:00:00,74.5,67.7,29.83,North,0,0.0,0.0,79,0.00,,,0.00,WUHU216HW,2013-07-08 06:00:00,
2013-07-08 02:01:00,74.5,68.0,29.83,North,0,0.0,0.0,80,0.00,,,0.00,WUHU216HW,2013-07-08 06:01:00,
2013-07-08 02:04:00,74.5,68.0,29.83,North,0,0.0,0.0,80,0.00,,,0.00,WUHU216HW,2013-07-08 06:04:00,
2013-07-08 02:05:00,74.5,68.0,29.83,North,0,0.0,0.0,80,0.00,,,0.00,WUHU216HW,2013-07-08 06:05:00,
2013-07-08 02:06:00,74.5,68.0,29.83,North,0,0.0,0.0,80,0.00,,,0.00,WUHU216HW,2013-07-08 06:06:00,
2013-07-08 02:10:00,74.3,67.9,29.83,North,0,0.0,0.0,80,0.00,,,0.00,WUHU216HW,2013-07-08 06:10:00,
2013-07-08 02:11:00,74.3,67.9,29.83,North,0,0.0,0.0,80,0.00,,,0.00,WUHU216HW,2013-07-08 06:11:00,
2013-07-08 02:15:00,74.3,67.9,29.83,North,0,0.0,0.0,80,0.00,,,0.00,WUHU216HW,2013-07-08 06:15:00,
2013-07-08 02:16:00,74.2,67.7,29.83,North,0,0.0,0.0,80,0.00,,,0.00,WUHU216HW,2013-07-08 06:16:00,
2013-07-08 02:20:00,74.2,67.7,29.83,North,0,0.0,0.0,80,0.00,,,0.00,WUHU216HW,2013-07-08 06:20:00,
2013-07-08 02:21:00,74.2,67.7,29.83,North,0,0.0,0.0,80,0.00,,,0.00,WUHU216HW,2013-07-08 06:21:00,
2013-07-08 02:25:00,74.2,68.1,29.83,North,0,0.0,0.0,81,0.00,,,0.00,WUHU216HW,2013-07-08 06:25:00,
2013-07-08 02:26:00,74.2,68.1,29.83,North,0,0.0,0.0,81,0.00,,,0.00,WUHU216HW,2013-07-08 06:26:00,
2013-07-08 02:27:00,74.0,67.9,29.83,North,0,0.0,0.0,81,0.00,,,0.00,WUHU216HW,2013-07-08 06:27:00,
2013-07-08 02:30:00,74.0,67.9,29.83,North,0,0.0,0.0,81,0.00,,,0.00,WUHU216HW,2013-07-08 06:30:00,
2013-07-08 02:31:00,74.0,67.9,29.83,North,0,0.0,0.0,81,0.00,,,0.00,WUHU216HW,2013-07-08 06:31:00,
2013-07-08 02:32:00,74.0,67.9,29.83,North,0,0.0,0.0,81,0.00,,,0.00,WUHU216HW,2013-07-08 06:32:00,
2013-07-08 02:35:00,73.8,67.7,29.83,North,0,0.0,0.0,81,0.00,,,0.00,WUHU216HW,2013-07-08 06:35:00,
2013-07-08 02:36:00,73.8,67.7,29.84,North,0,0.0,0.0,81,0.00,,,0.00,WUHU216HW,2013-07-08 06:36:00,
2013-07-08 02:37:00,73.8,67.7,29.83,North,0,0.0,0.0,81,0.00,,,0.00,WUHU216HW,2013-07-08 06:37:00,
2013-07-08 02:41:00,73.8,67.7,29.83,North,0,0.0,0.0,81,0.00,,,0.00,WUHU216HW,2013-07-08 06:41:00,
2013-07-08 02:42:00,73.8,67.7,29.83,North,0,0.0,0.0,81,0.00,,,0.00,WUHU216HW,2013-07-08 06:42:00,
2013-07-08 02:46:00,73.8,67.7,29.83,North,0,0.0,0.0,81,0.00,,,0.00,WUHU216HW,2013-07-08 06:46:00,
2013-07-08 02:47:00,73.8,67.7,29.83,North,0,0.0,0.0,81,0.00,,,0.00,WUHU216HW,2013-07-08 06:47:00,
2013-07-08 02:51:00,73.6,67.5,29.84,North,0,0.0,0.0,81,0.00,,,0.00,WUHU216HW,2013-07-08 06:51:00,
2013-07-08 02:52:00,73.6,67.9,29.84,North,0,0.0,0.0,82,0.00,,,0.00,WUHU216HW,2013-07-08 06:52:00,
2013-07-08 02:53:00,73.6,67.9,29.84,North,0,0.0,0.0,82,0.00,,,0.00,WUHU216HW,2013-07-08 06:53:00,
2013-07-08 02:56:00,73.6,67.9,29.84,North,0,0.0,0.0,82,0.00,,,0.00,WUHU216HW,2013-07-08 06:56:00,
2013-07-08 02:57:00,73.6,67.9,29.84,North,0,0.0,0.0,82,0.00,,,0.00,WUHU216HW,2013-07-08 06:57:00,
2013-07-08 02:58:00,73.6,67.9,29.84,North,0,0.0,0.0,82,0.00,,,0.00,WUHU216HW,2013-07-08 06:58:00,
2013-07-08 03:01:00,73.6,67.9,29.84,North,0,0.0,0.0,82,0.00,,,0.00,WUHU216HW,2013-07-08 07:01:00,
2013-07-08 03:02:00,73.6,68.1,29.84,North,0,0.0,0.0,83,0.00,,,0.00,WUHU216HW,2013-07-08 07:02:00,
2013-07-08 03:03:00,73.6,68.1,29.84,North,0,0.0,0.0,83,0.00,,,0.00,WUHU216HW,2013-07-08 07:03:00,
2013-07-08 03:07:00,73.6,67.9,29.84,North,0,0.0,0.0,82,0.00,,,0.00,WUHU216HW,2013-07-08 07:07:00,
2013-07-08 03:08:00,73.6,67.9,29.84,North,0,0.0,0.0,82,0.00,,,0.00,WUHU216HW,2013-07-08 07:08:00,
2013-07-08 03:12:00,73.6,68.1,29.84,North,0,0.0,0.0,83,0.00,,,0.00,WUHU216HW,2013-07-08 07:12:00,
2013-07-08 03:13:00,73.6,68.1,29.84,North,0,0.0,0.0,83,0.00,,,0.00,WUHU216HW,2013-07-08 07:13:00,
2013-07-08 03:17:00,73.4,68.0,29.84,North,0,0.0,0.0,83,0.00,,,0.00,WUHU216HW,2013-07-08 07:17:00,
2013-07-08 03:18:00,73.6,68.1,29.84,North,0,0.0,0.0,83,0.00,,,0.00,WUHU216HW,2013-07-08 07:18:00,
2013-07-08 03:19:00,73.6,68.1,29.83,North,0,0.0,0.0,83,0.00,,,0.00,WUHU216HW,2013-07-08 07:19:00,
2013-07-08 03:22:00,73.4,68.0,29.84,North,0,0.0,0.0,83,0.00,,,0.00,WUHU216HW,2013-07-08 07:22:00,
2013-07-08 03:23:00,73.6,68.1,29.84,North,0,0.0,0.0,83,0.00,,,0.00,WUHU216HW,2013-07-08 07:23:00,
2013-07-08 03:24:00,73.4,68.0,29.84,North,0,0.0,0.0,83,0.00,,,0.00,WUHU216HW,2013-07-08 07:24:00,
2013-07-08 03:27:00,73.6,68.1,29.84,North,0,0.0,0.0,83,0.00,,,0.00,WUHU216HW,2013-07-08 07:27:00,
2013-07-08 03:28:00,73.4,68.0,29.84,North,0,0.0,0.0,83,0.00,,,0.00,WUHU216HW,2013-07-08 07:28:00,
2013-07-08 03:29:00,73.4,68.0,29.83,North,0,0.0,0.0,83,0.00,,,0.00,WUHU216HW,2013-07-08 07:29:00,
2013-07-08 03:32:00,73.4,68.0,29.84,North,0,0.0,0.0,83,0.00,,,0.00,WUHU216HW,2013-07-08 07:32:00,
2013-07-08 03:33:00,73.4,68.3,29.84,North,0,0.0,0.0,84,0.00,,,0.00,WUHU216HW,2013-07-08 07:33:00,
2013-07-08 03:34:00,73.4,68.0,29.84,North,0,0.0,0.0,83,0.00,,,0.00,WUHU216HW,2013-07-08 07:34:00,
2013-07-08 03:38:00,73.4,68.3,29.83,North,0,0.0,0.0,84,0.00,,,0.00,WUHU216HW,2013-07-08 07:38:00,
2013-07-08 03:39:00,73.4,68.3,29.84,North,0,0.0,0.0,84,0.00,,,0.00,WUHU216HW,2013-07-08 07:39:00,
2013-07-08 03:43:00,73.4,68.3,29.84,North,0,0.0,0.0,84,0.00,,,0.00,WUHU216HW,2013-07-08 07:43:00,
2013-07-08 03:44:00,73.4,68.3,29.84,North,0,0.0,0.0,84,0.00,,,0.00,WUHU216HW,2013-07-08 07:44:00,
2013-07-08 03:48:00,73.4,68.7,29.84,North,0,0.0,0.0,85,0.00,,,0.00,WUHU216HW,2013-07-08 07:48:00,
2013-07-08 03:49:00,73.3,68.1,29.84,North,0,0.0,0.0,84,0.00,,,0.00,WUHU216HW,2013-07-08 07:49:00,
2013-07-08 03:50:00,73.3,68.1,29.84,North,0,0.0,0.0,84,0.00,,,0.00,WUHU216HW,2013-07-08 07:50:00,
2013-07-08 03:54:00,73.3,68.5,29.84,North,0,0.0,0.0,85,0.00,,,0.00,WUHU216HW,2013-07-08 07:54:00,
2013-07-08 03:55:00,73.3,68.5,29.84,North,0,0.0,0.0,85,0.00,,,0.00,WUHU216HW,2013-07-08 07:55:00,
2013-07-08 03:59:00,73.3,68.5,29.84,North,0,0.0,0.0,85,0.00,,,0.00,WUHU216HW,2013-07-08 07:59:00,
2013-07-08 04:00:00,73.3,68.5,29.84,North,0,0.0,0.0,85,0.00,,,0.00,WUHU216HW,2013-07-08 08:00:00,
2013-07-08 04:04:00,73.3,68.9,29.84,North,0,0.0,0.0,86,0.00,,,0.00,WUHU216HW,2013-07-08 08:04:00,
2013-07-08 04:05:00,73.3,68.5,29.84,North,0,0.0,0.0,85,0.00,,,0.00,WUHU216HW,2013-07-08 08:05:00,
2013-07-08 04:09:00,73.3,68.5,29.84,North,0,0.0,0.0,85,0.00,,,0.00,WUHU216HW,2013-07-08 08:09:00,
2013-07-08 04:10:00,73.3,68.5,29.84,North,0,0.0,0.0,85,0.00,,,0.00,WUHU216HW,2013-07-08 08:10:00,
2013-07-08 04:14:00,73.3,68.5,29.84,North,0,0.0,0.0,85,0.00,,,0.00,WUHU216HW,2013-07-08 08:14:00,
2013-07-08 04:15:00,73.3,68.5,29.84,North,0,0.0,0.0,85,0.00,,,0.00,WUHU216HW,2013-07-08 08:15:00,
2013-07-08 04:16:00,73.3,68.5,29.84,North,0,0.0,0.0,85,0.00,,,0.00,WUHU216HW,2013-07-08 08:16:00,
2013-07-08 04:19:00,73.3,68.9,29.84,North,0,0.0,0.0,86,0.00,,,0.00,WUHU216HW,2013-07-08 08:19:00,
2013-07-08 04:20:00,73.3,68.9,29.84,North,0,0.0,0.0,86,0.00,,,0.00,WUHU216HW,2013-07-08 08:20:00,
2013-07-08 04:21:00,73.1,68.7,29.84,North,0,0.0,0.0,86,0.00,,,0.00,WUHU216HW,2013-07-08 08:21:00,
2013-07-08 04:24:00,73.3,68.9,29.84,North,0,0.0,0.0,86,0.00,,,0.00,WUHU216HW,2013-07-08 08:24:00,
2013-07-08 04:25:00,73.1,68.7,29.84,North,0,0.0,0.0,86,0.00,,,0.00,WUHU216HW,2013-07-08 08:25:00,
2013-07-08 04:26:00,73.1,68.7,29.84,North,0,0.0,0.0,86,0.00,,,0.00,WUHU216HW,2013-07-08 08:26:00,
2013-07-08 04:29:00,73.1,68.7,29.84,North,0,0.0,0.0,86,0.00,,,0.00,WUHU216HW,2013-07-08 08:29:00,
2013-07-08 04:30:00,73.1,68.7,29.84,North,0,0.0,0.0,86,0.00,,,0.00,WUHU216HW,2013-07-08 08:30:00,
2013-07-08 04:31:00,73.1,68.7,29.84,North,0,0.0,0.0,86,0.00,,,0.00,WUHU216HW,2013-07-08 08:31:00,
2013-07-08 04:35:00,73.1,68.7,29.84,North,0,0.0,0.0,86,0.00,,,0.00,WUHU216HW,2013-07-08 08:35:00,
2013-07-08 04:36:00,73.1,68.7,29.84,North,0,0.0,0.0,86,0.00,,,0.00,WUHU216HW,2013-07-08 08:36:00,
2013-07-08 04:37:00,73.1,68.7,29.84,North,0,0.0,0.0,86,0.00,,,0.00,WUHU216HW,2013-07-08 08:37:00,
2013-07-08 04:40:00,73.1,68.7,29.84,North,0,0.0,0.0,86,0.00,,,0.00,WUHU216HW,2013-07-08 08:40:00,
2013-07-08 04:41:00,72.9,68.5,29.84,North,0,0.0,0.0,86,0.00,,,0.00,WUHU216HW,2013-07-08 08:41:00,
2013-07-08 04:42:00,73.1,68.7,29.84,North,0,0.0,0.0,86,0.00,,,0.00,WUHU216HW,2013-07-08 08:42:00,
2013-07-08 04:45:00,72.9,68.5,29.84,North,0,0.0,0.0,86,0.00,,,0.00,WUHU216HW,2013-07-08 08:45:00,
2013-07-08 04:46:00,72.9,68.5,29.84,North,0,0.0,0.0,86,0.00,,,0.00,WUHU216HW,2013-07-08 08:46:00,
2013-07-08 04:47:00,72.9,68.5,29.84,North,0,0.0,0.0,86,0.00,,,0.00,WUHU216HW,2013-07-08 08:47:00,
2013-07-08 04:50:00,72.9,68.5,29.84,North,0,0.0,0.0,86,0.00,,,0.00,WUHU216HW,2013-07-08 08:50:00,
2013-07-08 04:51:00,72.9,68.1,29.84,North,0,0.0,0.0,85,0.00,,,0.00,WUHU216HW,2013-07-08 08:51:00,
2013-07-08 04:52:00,72.9,68.1,29.84,North,0,0.0,0.0,85,0.00,,,0.00,WUHU216HW,2013-07-08 08:52:00,
2013-07-08 04:53:00,72.9,68.1,29.84,North,0,0.0,0.0,85,0.00,,,0.00,WUHU216HW,2013-07-08 08:53:00,
2013-07-08 04:55:00,72.9,68.1,29.84,North,0,0.0,0.0,85,0.00,,,0.00,WUHU216HW,2013-07-08 08:55:00,
2013-07-08 04:56:00,72.9,68.1,29.84,North,0,0.0,0.0,85,0.00,,,0.00,WUHU216HW,2013-07-08 08:56:00,
2013-07-08 04:57:00,72.9,68.1,29.84,North,0,0.0,0.0,85,0.00,,,0.00,WUHU216HW,2013-07-08 08:57:00,
2013-07-08 04:58:00,72.7,68.0,29.84,North,0,0.0,0.0,85,0.00,,,0.00,WUHU216HW,2013-07-08 08:58:00,
2013-07-08 05:01:00,72.7,68.0,29.84,North,0,0.0,0.0,85,0.00,,,0.00,WUHU216HW,2013-07-08 09:01:00,
2013-07-08 05:02:00,72.7,68.0,29.84,North,0,0.0,0.0,85,0.00,,,0.00,WUHU216HW,2013-07-08 09:02:00,
2013-07-08 05:03:00,72.7,68.0,29.84,North,0,0.0,0.0,85,0.00,,,0.00,WUHU216HW,2013-07-08 09:03:00,
2013-07-08 05:06:00,72.7,68.0,29.85,North,0,0.0,0.0,85,0.00,,,0.00,WUHU216HW,2013-07-08 09:06:00,
2013-07-08 05:07:00,72.7,68.0,29.85,North,0,0.0,0.0,85,0.00,,,0.00,WUHU216HW,2013-07-08 09:07:00,
2013-07-08 05:09:00,72.7,68.0,29.85,North,0,0.0,0.0,85,0.00,,,0.00,WUHU216HW,2013-07-08 09:09:00,
2013-07-08 05:11:00,72.7,68.0,29.85,North,0,0.0,0.0,85,0.00,,,0.00,WUHU216HW,2013-07-08 09:11:00,
2013-07-08 05:12:00,72.7,68.0,29.85,North,0,0.0,0.0,85,0.00,,,0.00,WUHU216HW,2013-07-08 09:12:00,
2013-07-08 05:15:00,72.5,67.8,29.85,North,0,0.0,0.0,85,0.00,,,0.00,WUHU216HW,2013-07-08 09:15:00,
2013-07-08 05:16:00,72.5,67.8,29.85,North,0,0.0,0.0,85,0.00,,,0.00,WUHU216HW,2013-07-08 09:16:00,
2013-07-08 05:17:00,72.5,67.8,29.85,North,0,0.0,0.0,85,0.00,,,0.00,WUHU216HW,2013-07-08 09:17:00,
2013-07-08 05:20:00,72.5,67.8,29.85,North,0,0.0,0.0,85,0.00,,,0.00,WUHU216HW,2013-07-08 09:20:00,
2013-07-08 05:21:00,72.5,67.8,29.85,North,0,0.0,0.0,85,0.00,,,0.00,WUHU216HW,2013-07-08 09:21:00,
2013-07-08 05:22:00,72.5,68.1,29.85,North,0,0.0,0.0,86,0.00,,,0.00,WUHU216HW,2013-07-08 09:22:00,
2013-07-08 05:23:00,72.5,68.1,29.85,North,0,0.0,0.0,86,0.00,,,0.00,WUHU216HW,2013-07-08 09:23:00,
2013-07-08 05:25:00,72.5,68.1,29.85,North,0,0.0,0.0,86,0.00,,,0.00,WUHU216HW,2013-07-08 09:25:00,
2013-07-08 05:26:00,72.5,68.1,29.86,North,0,0.0,0.0,86,0.00,,,0.00,WUHU216HW,2013-07-08 09:26:00,
2013-07-08 05:27:00,72.4,68.0,29.86,North,0,0.0,0.0,86,0.00,,,0.00,WUHU216HW,2013-07-08 09:27:00,
2013-07-08 05:28:00,72.4,68.0,29.86,North,0,0.0,0.0,86,0.00,,,0.00,WUHU216HW,2013-07-08 09:28:00,
2013-07-08 05:31:00,72.4,68.0,29.86,North,0,0.0,0.0,86,0.00,,,0.00,WUHU216HW,2013-07-08 09:31:00,
2013-07-08 05:32:00,72.4,68.0,29.86,North,0,0.0,0.0,86,0.00,,,0.00,WUHU216HW,2013-07-08 09:32:00,
2013-07-08 05:33:00,72.4,68.0,29.86,North,0,0.0,0.0,86,0.00,,,0.00,WUHU216HW,2013-07-08 09:33:00,
2013-07-08 05:34:00,72.4,68.0,29.86,North,0,0.0,0.0,86,0.00,,,0.00,WUHU216HW,2013-07-08 09:34:00,
2013-07-08 05:36:00,72.4,68.0,29.86,North,0,0.0,0.0,86,0.00,,,0.00,WUHU216HW,2013-07-08 09:36:00,
2013-07-08 05:37:00,72.4,68.0,29.86,North,0,0.0,0.0,86,0.00,,,0.00,WUHU216HW,2013-07-08 09:37:00,
2013-07-08 05:39:00,72.4,68.0,29.86,North,0,0.0,0.0,86,0.00,,,0.00,WUHU216HW,2013-07-08 09:39:00,
2013-07-08 05:41:00,72.4,68.0,29.86,North,0,0.0,0.0,86,0.00,,,0.00,WUHU216HW,2013-07-08 09:41:00,
2013-07-08 05:42:00,72.4,68.0,29.86,North,0,0.0,0.0,86,0.00,,,0.00,WUHU216HW,2013-07-08 09:42:00,
2013-07-08 05:44:00,72.4,68.0,29.86,North,0,0.0,0.0,86,0.00,,,0.00,WUHU216HW,2013-07-08 09:44:00,
2013-07-08 05:46:00,72.4,68.0,29.86,North,0,0.0,0.0,86,0.00,,,0.00,WUHU216HW,2013-07-08 09:46:00,
2013-07-08 05:47:00,72.4,68.0,29.86,North,0,0.0,0.0,86,0.00,,,0.00,WUHU216HW,2013-07-08 09:47:00,
2013-07-08 05:49:00,72.4,68.0,29.87,North,0,0.0,0.0,86,0.00,,,0.00,WUHU216HW,2013-07-08 09:49:00,
2013-07-08 05:51:00,72.4,68.0,29.86,North,0,0.0,0.0,86,0.00,,,0.00,WUHU216HW,2013-07-08 09:51:00,
2013-07-08 05:52:00,72.4,68.0,29.86,North,0,0.0,0.0,86,0.00,,,0.00,WUHU216HW,2013-07-08 09:52:00,
2013-07-08 05:53:00,72.4,68.0,29.86,North,0,0.0,0.0,86,0.00,,,0.00,WUHU216HW,2013-07-08 09:53:00,
2013-07-08 05:54:00,72.4,68.0,29.86,North,0,0.0,0.0,86,0.00,,,0.00,WUHU216HW,2013-07-08 09:54:00,
2013-07-08 05:56:00,72.4,68.0,29.86,North,0,0.0,0.0,86,0.00,,,0.00,WUHU216HW,2013-07-08 09:56:00,
2013-07-08 05:57:00,72.4,68.0,29.86,North,0,0.0,0.0,86,0.00,,,0.00,WUHU216HW,2013-07-08 09:57:00,
2013-07-08 05:58:00,72.4,68.0,29.86,North,0,0.0,0.0,86,0.00,,,0.00,WUHU216HW,2013-07-08 09:58:00,
2013-07-08 05:59:00,72.5,68.1,29.86,North,0,0.0,0.0,86,0.00,,,0.00,WUHU216HW,2013-07-08 09:59:00,
2013-07-08 06:02:00,72.5,68.1,29.86,North,0,0.0,0.0,86,0.00,,,0.00,WUHU216HW,2013-07-08 10:02:00,
2013-07-08 06:03:00,72.4,68.0,29.86,North,0,0.0,0.0,86,0.00,,,0.00,WUHU216HW,2013-07-08 10:03:00,
2013-07-08 06:04:00,72.5,68.1,29.86,North,0,0.0,0.0,86,0.00,,,0.00,WUHU216HW,2013-07-08 10:04:00,
2013-07-08 06:07:00,72.4,68.0,29.86,North,0,0.0,0.0,86,0.00,,,0.00,WUHU216HW,2013-07-08 10:07:00,
2013-07-08 06:08:00,72.4,68.0,29.86,North,0,0.0,0.0,86,0.00,,,0.00,WUHU216HW,2013-07-08 10:08:00,
2013-07-08 06:09:00,72.4,68.0,29.86,North,0,0.0,0.0,86,0.00,,,0.00,WUHU216HW,2013-07-08 10:09:00,
2013-07-08 06:10:00,72.4,68.0,29.86,North,0,0.0,0.0,86,0.00,,,0.00,WUHU216HW,2013-07-08 10:10:00,
2013-07-08 06:12:00,72.5,68.1,29.86,North,0,0.0,0.0,86,0.00,,,0.00,WUHU216HW,2013-07-08 10:12:00,
2013-07-08 06:13:00,72.5,68.1,29.86,North,0,0.0,0.0,86,0.00,,,0.00,WUHU216HW,2013-07-08 10:13:00,
2013-07-08 06:14:00,72.4,68.0,29.86,North,0,0.0,0.0,86,0.00,,,0.00,WUHU216HW,2013-07-08 10:14:00,
2013-07-08 06:15:00,72.4,68.0,29.86,North,0,0.0,0.0,86,0.00,,,0.00,WUHU216HW,2013-07-08 10:15:00,
2013-07-08 06:17:00,72.5,68.1,29.86,North,0,0.0,0.0,86,0.00,,,0.00,WUHU216HW,2013-07-08 10:17:00,
2013-07-08 06:18:00,72.5,68.1,29.86,North,0,0.0,0.0,86,0.00,,,0.00,WUHU216HW,2013-07-08 10:18:00,
2013-07-08 06:20:00,72.7,68.3,29.86,North,0,0.0,0.0,86,0.00,,,0.00,WUHU216HW,2013-07-08 10:20:00,
2013-07-08 06:22:00,72.5,68.1,29.87,North,0,0.0,0.0,86,0.00,,,0.00,WUHU216HW,2013-07-08 10:22:00,
2013-07-08 06:23:00,72.5,67.8,29.87,North,0,0.0,0.0,85,0.00,,,0.00,WUHU216HW,2013-07-08 10:23:00,
2013-07-08 06:24:00,72.7,68.0,29.87,North,0,0.0,0.0,85,0.00,,,0.00,WUHU216HW,2013-07-08 10:24:00,
2013-07-08 06:25:00,72.7,68.0,29.87,North,0,0.0,0.0,85,0.00,,,0.00,WUHU216HW,2013-07-08 10:25:00,
2013-07-08 06:28:00,72.7,68.0,29.86,North,0,0.0,0.0,85,0.00,,,0.00,WUHU216HW,2013-07-08 10:28:00,
2013-07-08 06:29:00,72.7,68.0,29.87,North,0,0.0,0.0,85,0.00,,,0.00,WUHU216HW,2013-07-08 10:29:00,
2013-07-08 06:30:00,72.7,68.0,29.86,North,0,0.0,0.0,85,0.00,,,0.00,WUHU216HW,2013-07-08 10:30:00,
2013-07-08 06:31:00,72.7,68.0,29.87,North,0,0.0,0.0,85,0.00,,,0.00,WUHU216HW,2013-07-08 10:31:00,
2013-07-08 06:33:00,72.9,68.1,29.87,North,0,0.0,0.0,85,0.00,,,0.00,WUHU216HW,2013-07-08 10:33:00,
2013-07-08 06:35:00,72.9,68.1,29.87,North,0,0.0,0.0,85,0.00,,,0.00,WUHU216HW,2013-07-08 10:35:00,
2013-07-08 06:36:00,72.9,68.1,29.87,North,0,0.0,0.0,85,0.00,,,0.00,WUHU216HW,2013-07-08 10:36:00,
2013-07-08 06:38:00,72.9,68.5,29.87,North,0,0.0,0.0,86,0.00,,,0.00,WUHU216HW,2013-07-08 10:38:00,
2013-07-08 06:39:00,72.9,68.5,29.87,North,0,0.0,0.0,86,0.00,,,0.00,WUHU216HW,2013-07-08 10:39:00,
2013-07-08 06:40:00,73.1,68.7,29.87,North,0,0.0,0.0,86,0.00,,,0.00,WUHU216HW,2013-07-08 10:40:00,
2013-07-08 06:42:00,73.3,68.9,29.87,North,0,0.0,0.0,86,0.00,,,0.00,WUHU216HW,2013-07-08 10:42:00,
2013-07-08 06:43:00,73.4,69.0,29.87,North,0,0.0,0.0,86,0.00,,,0.00,WUHU216HW,2013-07-08 10:43:00,
2013-07-08 06:44:00,73.6,68.9,29.87,North,0,0.0,0.0,85,0.00,,,0.00,WUHU216HW,2013-07-08 10:44:00,
2013-07-08 06:45:00,74.0,69.2,29.87,North,0,0.0,0.0,85,0.00,,,0.00,WUHU216HW,2013-07-08 10:45:00,
2013-07-08 06:46:00,74.0,69.2,29.87,North,0,0.0,0.0,85,0.00,,,0.00,WUHU216HW,2013-07-08 10:46:00,
2013-07-08 06:47:00,74.3,69.6,29.87,North,0,0.0,0.0,85,0.00,,,0.00,WUHU216HW,2013-07-08 10:47:00,
2013-07-08 06:48:00,74.9,70.1,29.87,North,0,0.0,0.0,85,0.00,,,0.00,WUHU216HW,2013-07-08 10:48:00,
2013-07-08 06:49:00,74.9,70.1,29.87,North,0,0.0,0.0,85,0.00,,,0.00,WUHU216HW,2013-07-08 10:49:00,
2013-07-08 06:51:00,75.6,70.5,29.87,North,0,0.0,0.0,84,0.00,,,0.00,WUHU216HW,2013-07-08 10:51:00,
2013-07-08 06:52:00,76.0,70.8,29.87,North,0,0.0,0.0,84,0.00,,,0.00,WUHU216HW,2013-07-08 10:52:00,
2013-07-08 06:53:00,76.5,70.9,29.87,North,0,0.0,0.0,83,0.00,,,0.00,WUHU216HW,2013-07-08 10:53:00,
2013-07-08 06:54:00,76.7,70.7,29.87,North,0,0.0,0.0,82,0.00,,,0.00,WUHU216HW,2013-07-08 10:54:00,
2013-07-08 06:56:00,77.4,71.1,29.87,North,0,0.0,0.0,81,0.00,,,0.00,WUHU216HW,2013-07-08 10:56:00,
2013-07-08 06:58:00,77.9,70.9,29.87,North,0,0.0,0.0,79,0.00,,,0.00,WUHU216HW,2013-07-08 10:58:00,
2013-07-08 06:59:00,78.3,71.3,29.87,North,0,0.0,0.0,79,0.00,,,0.00,WUHU216HW,2013-07-08 10:59:00,
2013-07-08 07:01:00,78.7,71.7,29.87,North,0,0.0,0.0,79,0.00,,,0.00,WUHU216HW,2013-07-08 11:01:00,
2013-07-08 07:03:00,79.4,71.6,29.87,North,0,0.0,0.0,77,0.00,,,0.00,WUHU216HW,2013-07-08 11:03:00,
2013-07-08 07:04:00,79.6,70.9,29.87,North,0,0.0,0.0,75,0.00,,,0.00,WUHU216HW,2013-07-08 11:04:00,
2013-07-08 07:06:00,79.9,71.3,29.87,North,0,0.0,0.0,75,0.00,,,0.00,WUHU216HW,2013-07-08 11:06:00,
2013-07-08 07:08:00,80.5,72.2,29.87,North,0,0.0,0.0,76,0.00,,,0.00,WUHU216HW,2013-07-08 11:08:00,
2013-07-08 07:09:00,80.8,72.2,29.87,North,0,0.0,0.0,75,0.00,,,0.00,WUHU216HW,2013-07-08 11:09:00,
2013-07-08 07:11:00,81.4,72.7,29.87,North,0,0.0,0.0,75,0.00,,,0.00,WUHU216HW,2013-07-08 11:11:00,
2013-07-08 07:12:00,81.5,72.5,29.87,North,0,0.0,0.0,74,0.00,,,0.00,WUHU216HW,2013-07-08 11:12:00,
2013-07-08 07:14:00,81.9,72.4,29.87,North,0,0.0,0.0,73,0.00,,,0.00,WUHU216HW,2013-07-08 11:14:00,
2013-07-08 07:15:00,81.9,72.4,29.87,North,0,0.0,0.0,73,0.00,,,0.00,WUHU216HW,2013-07-08 11:15:00,
2013-07-08 07:16:00,81.9,72.0,29.87,North,0,0.0,0.0,72,0.00,,,0.00,WUHU216HW,2013-07-08 11:16:00,
2013-07-08 07:17:00,82.1,72.5,29.87,North,0,0.0,0.0,73,0.00,,,0.00,WUHU216HW,2013-07-08 11:17:00,
2013-07-08 07:19:00,82.3,72.7,29.87,North,0,0.0,0.0,73,0.00,,,0.00,WUHU216HW,2013-07-08 11:19:00,
2013-07-08 07:21:00,82.6,72.6,29.87,North,0,0.0,0.0,72,0.00,,,0.00,WUHU216HW,2013-07-08 11:21:00,
2013-07-08 07:22:00,82.8,72.0,29.87,North,0,0.0,0.0,70,0.00,,,0.00,WUHU216HW,2013-07-08 11:22:00,
2013-07-08 07:24:00,83.2,71.9,29.87,North,0,0.0,0.0,69,0.00,,,0.00,WUHU216HW,2013-07-08 11:24:00,
2013-07-08 07:25:00,83.2,71.9,29.87,North,0,0.0,0.0,69,0.00,,,0.00,WUHU216HW,2013-07-08 11:25:00,
2013-07-08 07:26:00,83.2,71.9,29.87,North,0,0.0,0.0,69,0.00,,,0.00,WUHU216HW,2013-07-08 11:26:00,
2013-07-08 07:27:00,83.2,71.9,29.87,North,0,0.0,0.0,69,0.00,,,0.00,WUHU216HW,2013-07-08 11:27:00,
2013-07-08 07:28:00,83.2,71.9,29.87,North,0,0.0,0.0,69,0.00,,,0.00,WUHU216HW,2013-07-08 11:28:00,
2013-07-08 07:29:00,82.8,71.6,29.87,North,0,0.0,0.0,69,0.00,,,0.00,WUHU216HW,2013-07-08 11:29:00,
2013-07-08 07:30:00,82.6,71.8,29.87,North,0,0.0,0.0,70,0.00,,,0.00,WUHU216HW,2013-07-08 11:30:00,
2013-07-08 07:31:00,82.8,72.0,29.87,North,0,0.0,0.0,70,0.00,,,0.00,WUHU216HW,2013-07-08 11:31:00,
2013-07-08 07:33:00,82.8,72.0,29.87,North,0,0.0,0.0,70,0.00,,,0.00,WUHU216HW,2013-07-08 11:33:00,
2013-07-08 07:34:00,82.8,72.0,29.87,North,0,0.0,0.0,70,0.00,,,0.00,WUHU216HW,2013-07-08 11:34:00,
2013-07-08 07:35:00,83.2,72.4,29.87,North,0,0.0,0.0,70,0.00,,,0.00,WUHU216HW,2013-07-08 11:35:00,
2013-07-08 07:37:00,83.3,71.6,29.87,North,0,0.0,0.0,68,0.00,,,0.00,WUHU216HW,2013-07-08 11:37:00,
2013-07-08 07:38:00,83.5,72.3,29.87,North,0,0.0,0.0,69,0.00,,,0.00,WUHU216HW,2013-07-08 11:38:00,
2013-07-08 07:39:00,83.7,72.5,29.87,North,0,0.0,0.0,69,0.00,,,0.00,WUHU216HW,2013-07-08 11:39:00,
2013-07-08 07:40:00,84.2,72.5,29.87,North,0,0.0,0.0,68,0.00,,,0.00,WUHU216HW,2013-07-08 11:40:00,
2013-07-08 07:42:00,84.6,72.5,29.87,North,0,0.0,0.0,67,0.00,,,0.00,WUHU216HW,2013-07-08 11:42:00,
2013-07-08 07:43:00,84.8,72.6,29.87,North,0,0.0,0.0,67,0.00,,,0.00,WUHU216HW,2013-07-08 11:43:00,
2013-07-08 07:45:00,85.0,72.8,29.87,North,0,0.0,0.0,67,0.00,,,0.00,WUHU216HW,2013-07-08 11:45:00,
2013-07-08 07:47:00,85.3,72.2,29.86,North,0,0.0,0.0,65,0.00,,,0.00,WUHU216HW,2013-07-08 11:47:00,
2013-07-08 07:48:00,85.3,72.2,29.86,North,0,0.0,0.0,65,0.00,,,0.00,WUHU216HW,2013-07-08 11:48:00,
2013-07-08 07:50:00,85.3,72.7,29.86,North,0,0.0,0.0,66,0.00,,,0.00,WUHU216HW,2013-07-08 11:50:00,
2013-07-08 07:53:00,85.7,73.0,29.86,North,0,0.0,0.0,66,0.00,,,0.00,WUHU216HW,2013-07-08 11:53:00,
2013-07-08 07:54:00,85.7,73.0,29.86,North,0,0.0,0.0,66,0.00,,,0.00,WUHU216HW,2013-07-08 11:54:00,
2013-07-08 07:55:00,85.7,72.5,29.86,North,0,0.0,0.0,65,0.00,,,0.00,WUHU216HW,2013-07-08 11:55:00,
2013-07-08 07:56:00,85.9,72.3,29.86,North,0,0.0,0.0,64,0.00,,,0.00,WUHU216HW,2013-07-08 11:56:00,
2013-07-08 07:58:00,85.7,71.7,29.86,North,0,0.0,0.0,63,0.00,,,0.00,WUHU216HW,2013-07-08 11:58:00,
2013-07-08 07:59:00,85.7,71.7,29.86,North,0,0.0,0.0,63,0.00,,,0.00,WUHU216HW,2013-07-08 11:59:00,
2013-07-08 08:00:00,85.7,71.7,29.86,North,0,0.0,0.0,63,0.00,,,0.00,WUHU216HW,2013-07-08 12:00:00,
2013-07-08 08:01:00,85.7,71.7,29.86,North,0,0.0,0.0,63,0.00,,,0.00,WUHU216HW,2013-07-08 12:01:00,
2013-07-08 08:03:00,85.3,71.3,29.86,North,0,0.0,0.0,63,0.00,,,0.00,WUHU216HW,2013-07-08 12:03:00,
2013-07-08 08:04:00,85.1,71.1,29.86,North,0,0.0,0.0,63,0.00,,,0.00,WUHU216HW,2013-07-08 12:04:00,
2013-07-08 08:05:00,84.6,71.1,29.87,North,0,0.0,0.0,64,0.00,,,0.00,WUHU216HW,2013-07-08 12:05:00,
2013-07-08 08:06:00,84.6,71.1,29.87,North,0,0.0,0.0,64,0.00,,,0.00,WUHU216HW,2013-07-08 12:06:00,
2013-07-08 08:08:00,84.4,70.9,29.87,North,0,0.0,0.0,64,0.00,,,0.00,WUHU216HW,2013-07-08 12:08:00,
2013-07-08 08:09:00,84.4,71.4,29.87,North,0,0.0,0.0,65,0.00,,,0.00,WUHU216HW,2013-07-08 12:09:00,
2013-07-08 08:10:00,84.4,71.4,29.88,North,0,0.0,0.0,65,0.00,,,0.00,WUHU216HW,2013-07-08 12:10:00,
2013-07-08 08:12:00,84.4,71.4,29.88,North,0,0.0,0.0,65,0.00,,,0.00,WUHU216HW,2013-07-08 12:12:00,
2013-07-08 08:13:00,84.4,71.4,29.88,North,0,0.0,0.0,65,0.00,,,0.00,WUHU216HW,2013-07-08 12:13:00,
2013-07-08 08:14:00,85.1,71.6,29.88,North,0,0.0,0.0,64,0.00,,,0.00,WUHU216HW,2013-07-08 12:14:00,
2013-07-08 08:15:00,85.1,71.6,29.88,North,0,0.0,0.0,64,0.00,,,0.00,WUHU216HW,2013-07-08 12:15:00,
2013-07-08 08:16:00,85.1,71.6,29.88,North,0,0.0,0.0,64,0.00,,,0.00,WUHU216HW,2013-07-08 12:16:00,
2013-07-08 08:17:00,85.3,71.7,29.87,North,0,0.0,0.0,64,0.00,,,0.00,WUHU216HW,2013-07-08 12:17:00,
2013-07-08 08:18:00,85.3,71.7,29.87,North,0,0.0,0.0,64,0.00,,,0.00,WUHU216HW,2013-07-08 12:18:00,
2013-07-08 08:19:00,85.3,71.3,29.87,North,0,0.0,0.0,63,0.00,,,0.00,WUHU216HW,2013-07-08 12:19:00,
2013-07-08 08:20:00,85.1,71.6,29.87,North,0,0.0,0.0,64,0.00,,,0.00,WUHU216HW,2013-07-08 12:20:00,
2013-07-08 08:21:00,85.0,71.5,29.87,North,0,0.0,0.0,64,0.00,,,0.00,WUHU216HW,2013-07-08 12:21:00,
2013-07-08 08:22:00,85.0,71.5,29.87,North,0,0.0,0.0,64,0.00,,,0.00,WUHU216HW,2013-07-08 12:22:00,
2013-07-08 08:23:00,85.0,71.5,29.87,North,0,0.0,0.0,64,0.00,,,0.00,WUHU216HW,2013-07-08 12:23:00,
2013-07-08 08:24:00,85.0,71.5,29.87,North,0,0.0,0.0,64,0.00,,,0.00,WUHU216HW,2013-07-08 12:24:00,
2013-07-08 08:26:00,84.8,71.7,29.88,North,0,0.0,0.0,65,0.00,,,0.00,WUHU216HW,2013-07-08 12:26:00,
2013-07-08 08:27:00,84.6,71.1,29.88,North,0,0.0,0.0,64,0.00,,,0.00,WUHU216HW,2013-07-08 12:27:00,
2013-07-08 08:28:00,84.6,71.1,29.88,North,0,0.0,0.0,64,0.00,,,0.00,WUHU216HW,2013-07-08 12:28:00,
2013-07-08 08:29:00,84.2,70.7,29.88,North,0,0.0,0.0,64,0.00,,,0.00,WUHU216HW,2013-07-08 12:29:00,
2013-07-08 08:31:00,84.1,70.6,29.88,North,0,0.0,0.0,64,0.00,,,0.00,WUHU216HW,2013-07-08 12:31:00,
2013-07-08 08:32:00,84.1,71.0,29.88,North,0,0.0,0.0,65,0.00,,,0.00,WUHU216HW,2013-07-08 12:32:00,
2013-07-08 08:33:00,84.1,71.0,29.88,North,0,0.0,0.0,65,0.00,,,0.00,WUHU216HW,2013-07-08 12:33:00,
2013-07-08 08:34:00,84.2,71.2,29.88,North,0,0.0,0.0,65,0.00,,,0.00,WUHU216HW,2013-07-08 12:34:00,
2013-07-08 08:36:00,84.2,71.2,29.88,North,0,0.0,0.0,65,0.00,,,0.00,WUHU216HW,2013-07-08 12:36:00,
2013-07-08 08:37:00,84.4,70.9,29.87,North,0,0.0,0.0,64,0.00,,,0.00,WUHU216HW,2013-07-08 12:37:00,
2013-07-08 08:38:00,84.4,70.9,29.88,North,0,0.0,0.0,64,0.00,,,0.00,WUHU216HW,2013-07-08 12:38:00,
2013-07-08 08:39:00,84.4,71.4,29.88,North,0,0.0,0.0,65,0.00,,,0.00,WUHU216HW,2013-07-08 12:39:00,
2013-07-08 08:41:00,84.6,71.6,29.88,North,0,0.0,0.0,65,0.00,,,0.00,WUHU216HW,2013-07-08 12:41:00,
2013-07-08 08:42:00,84.6,71.1,29.88,North,0,0.0,0.0,64,0.00,,,0.00,WUHU216HW,2013-07-08 12:42:00,
2013-07-08 08:43:00,84.8,70.8,29.88,North,0,0.0,0.0,63,0.00,,,0.00,WUHU216HW,2013-07-08 12:43:00,
2013-07-08 08:44:00,84.8,71.7,29.88,North,0,0.0,0.0,65,0.00,,,0.00,WUHU216HW,2013-07-08 12:44:00,
2013-07-08 08:46:00,85.0,70.9,29.88,North,0,0.0,0.0,63,0.00,,,0.00,WUHU216HW,2013-07-08 12:46:00,
2013-07-08 08:47:00,85.3,71.3,29.88,North,0,0.0,0.0,63,0.00,,,0.00,WUHU216HW,2013-07-08 12:47:00,
2013-07-08 08:48:00,85.3,71.3,29.88,North,0,0.0,0.0,63,0.00,,,0.00,WUHU216HW,2013-07-08 12:48:00,
2013-07-08 08:49:00,85.7,72.1,29.88,North,0,0.0,0.0,64,0.00,,,0.00,WUHU216HW,2013-07-08 12:49:00,
2013-07-08 08:52:00,86.4,72.3,29.88,North,0,0.0,0.0,63,0.00,,,0.00,WUHU216HW,2013-07-08 12:52:00,
2013-07-08 08:53:00,86.6,72.0,29.88,North,0,0.0,0.0,62,0.00,,,0.00,WUHU216HW,2013-07-08 12:53:00,
2013-07-08 08:54:00,86.6,71.6,29.88,North,0,0.0,0.0,61,0.00,,,0.00,WUHU216HW,2013-07-08 12:54:00,
2013-07-08 08:55:00,86.6,71.6,29.88,North,0,0.0,0.0,61,0.00,,,0.00,WUHU216HW,2013-07-08 12:55:00,
2013-07-08 08:57:00,86.9,71.9,29.87,North,0,0.0,0.0,61,0.00,,,0.00,WUHU216HW,2013-07-08 12:57:00,
2013-07-08 08:58:00,87.1,72.1,29.87,North,0,0.0,0.0,61,0.00,,,0.00,WUHU216HW,2013-07-08 12:58:00,
2013-07-08 08:59:00,87.1,72.1,29.88,North,0,0.0,0.0,61,0.00,,,0.00,WUHU216HW,2013-07-08 12:59:00,
2013-07-08 09:00:00,87.3,71.8,29.88,North,0,0.0,0.0,60,0.00,,,0.00,WUHU216HW,2013-07-08 13:00:00,
2013-07-08 09:02:00,87.5,72.5,29.88,North,0,0.0,0.0,61,0.00,,,0.00,WUHU216HW,2013-07-08 13:02:00,
2013-07-08 09:03:00,87.7,72.6,29.88,North,0,0.0,0.0,61,0.00,,,0.00,WUHU216HW,2013-07-08 13:03:00,
2013-07-08 09:04:00,87.7,72.2,29.88,North,0,0.0,0.0,60,0.00,,,0.00,WUHU216HW,2013-07-08 13:04:00,
2013-07-08 09:05:00,87.8,71.8,29.88,North,0,0.0,0.0,59,0.00,,,0.00,WUHU216HW,2013-07-08 13:05:00,
2013-07-08 09:06:00,87.8,72.4,29.88,North,0,0.0,0.0,60,0.00,,,0.00,WUHU216HW,2013-07-08 13:06:00,
2013-07-08 09:07:00,87.8,72.4,29.88,North,0,0.0,0.0,60,0.00,,,0.00,WUHU216HW,2013-07-08 13:07:00,
2013-07-08 09:08:00,87.8,71.8,29.88,North,0,0.0,0.0,59,0.00,,,0.00,WUHU216HW,2013-07-08 13:08:00,
2013-07-08 09:09:00,87.8,71.8,29.88,North,0,0.0,0.0,59,0.00,,,0.00,WUHU216HW,2013-07-08 13:09:00,
2013-07-08 09:10:00,87.8,72.4,29.88,North,0,0.0,0.0,60,0.00,,,0.00,WUHU216HW,2013-07-08 13:10:00,
2013-07-08 09:11:00,87.7,71.6,29.88,North,0,0.0,0.0,59,0.00,,,0.00,WUHU216HW,2013-07-08 13:11:00,
2013-07-08 09:12:00,87.8,71.8,29.88,North,0,0.0,0.0,59,0.00,,,0.00,WUHU216HW,2013-07-08 13:12:00,
2013-07-08 09:14:00,87.8,71.8,29.88,North,0,0.0,0.0,59,0.00,,,0.00,WUHU216HW,2013-07-08 13:14:00,
2013-07-08 09:15:00,87.8,71.8,29.88,North,0,0.0,0.0,59,0.00,,,0.00,WUHU216HW,2013-07-08 13:15:00,
2013-07-08 09:16:00,87.8,71.8,29.88,North,0,0.0,0.0,59,0.00,,,0.00,WUHU216HW,2013-07-08 13:16:00,
2013-07-08 09:18:00,88.6,72.5,29.88,North,0,0.0,0.0,59,0.00,,,0.00,WUHU216HW,2013-07-08 13:18:00,
2013-07-08 09:19:00,88.7,72.6,29.88,North,0,0.0,0.0,59,0.00,,,0.00,WUHU216HW,2013-07-08 13:19:00,
2013-07-08 09:20:00,88.9,72.8,29.88,North,0,0.0,0.0,59,0.00,,,0.00,WUHU216HW,2013-07-08 13:20:00,
2013-07-08 09:21:00,89.1,73.0,29.87,North,0,0.0,0.0,59,0.00,,,0.00,WUHU216HW,2013-07-08 13:21:00,
2013-07-08 09:23:00,89.3,71.5,29.88,North,0,0.0,0.0,56,0.00,,,0.00,WUHU216HW,2013-07-08 13:23:00,
2013-07-08 09:24:00,89.3,72.0,29.88,North,0,0.0,0.0,57,0.00,,,0.00,WUHU216HW,2013-07-08 13:24:00,
2013-07-08 09:25:00,89.1,71.9,29.88,North,0,0.0,0.0,57,0.00,,,0.00,WUHU216HW,2013-07-08 13:25:00,
2013-07-08 09:27:00,89.1,71.4,29.88,North,0,0.0,0.0,56,0.00,,,0.00,WUHU216HW,2013-07-08 13:27:00,
2013-07-08 09:28:00,88.9,71.7,29.87,North,0,0.0,0.0,57,0.00,,,0.00,WUHU216HW,2013-07-08 13:28:00,
2013-07-08 09:29:00,88.7,71.6,29.87,North,0,0.0,0.0,57,0.00,,,0.00,WUHU216HW,2013-07-08 13:29:00,
2013-07-08 09:30:00,88.9,71.7,29.87,North,0,0.0,0.0,57,0.00,,,0.00,WUHU216HW,2013-07-08 13:30:00,
2013-07-08 09:32:00,88.7,71.6,29.88,North,0,0.0,0.0,57,0.00,,,0.00,WUHU216HW,2013-07-08 13:32:00,
2013-07-08 09:33:00,88.7,71.6,29.88,North,0,0.0,0.0,57,0.00,,,0.00,WUHU216HW,2013-07-08 13:33:00,
2013-07-08 09:34:00,88.7,71.6,29.87,North,0,0.0,0.0,57,0.00,,,0.00,WUHU216HW,2013-07-08 13:34:00,
2013-07-08 09:36:00,88.9,71.7,29.88,North,0,0.0,0.0,57,0.00,,,0.00,WUHU216HW,2013-07-08 13:36:00,
2013-07-08 09:37:00,88.9,72.3,29.88,North,0,0.0,0.0,58,0.00,,,0.00,WUHU216HW,2013-07-08 13:37:00,
2013-07-08 09:39:00,89.1,71.9,29.88,North,0,0.0,0.0,57,0.00,,,0.00,WUHU216HW,2013-07-08 13:39:00,
2013-07-08 09:40:00,89.1,71.9,29.87,North,0,0.0,0.0,57,0.00,,,0.00,WUHU216HW,2013-07-08 13:40:00,
2013-07-08 09:41:00,89.1,72.5,29.87,North,0,0.0,0.0,58,0.00,,,0.00,WUHU216HW,2013-07-08 13:41:00,
2013-07-08 09:42:00,89.1,72.5,29.87,North,0,0.0,0.0,58,0.00,,,0.00,WUHU216HW,2013-07-08 13:42:00,
2013-07-08 09:44:00,89.3,72.0,29.87,North,0,0.0,0.0,57,0.00,,,0.00,WUHU216HW,2013-07-08 13:44:00,
2013-07-08 09:45:00,89.3,72.0,29.87,North,0,0.0,0.0,57,0.00,,,0.00,WUHU216HW,2013-07-08 13:45:00,
2013-07-08 09:46:00,89.3,72.0,29.87,North,0,0.0,0.0,57,0.00,,,0.00,WUHU216HW,2013-07-08 13:46:00,
2013-07-08 09:47:00,89.1,71.9,29.87,North,0,0.0,0.0,57,0.00,,,0.00,WUHU216HW,2013-07-08 13:47:00,
2013-07-08 09:49:00,88.9,71.7,29.87,North,0,0.0,0.0,57,0.00,,,0.00,WUHU216HW,2013-07-08 13:49:00,
2013-07-08 09:50:00,88.9,71.7,29.87,North,0,0.0,0.0,57,0.00,,,0.00,WUHU216HW,2013-07-08 13:50:00,
2013-07-08 09:51:00,88.6,71.4,29.87,North,0,0.0,0.0,57,0.00,,,0.00,WUHU216HW,2013-07-08 13:51:00,
2013-07-08 09:53:00,88.6,71.4,29.87,North,0,0.0,0.0,57,0.00,,,0.00,WUHU216HW,2013-07-08 13:53:00,
2013-07-08 09:54:00,88.4,71.7,29.87,North,0,0.0,0.0,58,0.00,,,0.00,WUHU216HW,2013-07-08 13:54:00,
2013-07-08 09:55:00,88.2,71.7,29.87,North,0,0.0,0.0,58,0.00,,,0.00,WUHU216HW,2013-07-08 13:55:00,
2013-07-08 09:56:00,88.4,71.7,29.87,North,0,0.0,0.0,58,0.00,,,0.00,WUHU216HW,2013-07-08 13:56:00,
2013-07-08 09:58:00,88.4,72.3,29.86,North,0,0.0,0.0,59,0.00,,,0.00,WUHU216HW,2013-07-08 13:58:00,
2013-07-08 09:59:00,88.6,71.9,29.86,North,0,0.0,0.0,58,0.00,,,0.00,WUHU216HW,2013-07-08 13:59:00,
2013-07-08 10:00:00,88.6,72.5,29.86,North,0,0.0,0.0,59,0.00,,,0.00,WUHU216HW,2013-07-08 14:00:00,
2013-07-08 10:02:00,88.9,72.3,29.86,North,0,0.0,0.0,58,0.00,,,0.00,WUHU216HW,2013-07-08 14:02:00,
2013-07-08 10:03:00,88.9,72.3,29.86,North,0,0.0,0.0,58,0.00,,,0.00,WUHU216HW,2013-07-08 14:03:00,
2013-07-08 10:05:00,88.9,72.3,29.86,North,0,0.0,0.0,58,0.00,,,0.00,WUHU216HW,2013-07-08 14:05:00,
2013-07-08 10:06:00,88.9,72.3,29.86,North,0,0.0,0.0,58,0.00,,,0.00,WUHU216HW,2013-07-08 14:06:00,
2013-07-08 10:07:00,88.9,72.3,29.86,North,0,0.0,0.0,58,0.00,,,0.00,WUHU216HW,2013-07-08 14:07:00,
2013-07-08 10:08:00,88.9,72.3,29.86,North,0,0.0,0.0,58,0.00,,,0.00,WUHU216HW,2013-07-08 14:08:00,
2013-07-08 10:10:00,89.1,71.9,29.87,North,0,0.0,0.0,57,0.00,,,0.00,WUHU216HW,2013-07-08 14:10:00,
2013-07-08 10:11:00,89.1,71.9,29.87,North,0,0.0,0.0,57,0.00,,,0.00,WUHU216HW,2013-07-08 14:11:00,
2013-07-08 10:12:00,88.9,71.7,29.87,North,0,0.0,0.0,57,0.00,,,0.00,WUHU216HW,2013-07-08 14:12:00,
2013-07-08 10:14:00,88.9,72.3,29.87,North,0,0.0,0.0,58,0.00,,,0.00,WUHU216HW,2013-07-08 14:14:00,
2013-07-08 10:15:00,88.9,71.7,29.87,North,0,0.0,0.0,57,0.00,,,0.00,WUHU216HW,2013-07-08 14:15:00,
2013-07-08 10:16:00,88.9,71.2,29.87,North,0,0.0,0.0,56,0.00,,,0.00,WUHU216HW,2013-07-08 14:16:00,
2013-07-08 10:17:00,88.9,71.2,29.87,North,0,0.0,0.0,56,0.00,,,0.00,WUHU216HW,2013-07-08 14:17:00,
2013-07-08 10:19:00,88.6,71.4,29.87,North,0,0.0,0.0,57,0.00,,,0.00,WUHU216HW,2013-07-08 14:19:00,
2013-07-08 10:20:00,88.6,71.4,29.87,North,0,0.0,0.0,57,0.00,,,0.00,WUHU216HW,2013-07-08 14:20:00,
2013-07-08 10:21:00,88.6,71.9,29.87,North,0,0.0,0.0,58,0.00,,,0.00,WUHU216HW,2013-07-08 14:21:00,
2013-07-08 10:22:00,88.6,71.4,29.87,North,0,0.0,0.0,57,0.00,,,0.00,WUHU216HW,2013-07-08 14:22:00,
2013-07-08 10:24:00,88.4,71.2,29.87,North,0,0.0,0.0,57,0.00,,,0.00,WUHU216HW,2013-07-08 14:24:00,
2013-07-08 10:25:00,88.4,71.2,29.87,North,0,0.0,0.0,57,0.00,,,0.00,WUHU216HW,2013-07-08 14:25:00,
2013-07-08 10:26:00,88.0,70.9,29.87,North,0,0.0,0.0,57,0.00,,,0.00,WUHU216HW,2013-07-08 14:26:00,
2013-07-08 10:27:00,88.0,71.5,29.87,North,0,0.0,0.0,58,0.00,,,0.00,WUHU216HW,2013-07-08 14:27:00,
2013-07-08 10:30:00,87.8,71.8,29.87,North,0,0.0,0.0,59,0.00,,,0.00,WUHU216HW,2013-07-08 14:30:00,
2013-07-08 10:32:00,87.8,71.8,29.87,North,0,0.0,0.0,59,0.00,,,0.00,WUHU216HW,2013-07-08 14:32:00,
2013-07-08 10:35:00,87.8,71.8,29.87,North,0,0.0,0.0,59,0.00,,,0.00,WUHU216HW,2013-07-08 14:35:00,
2013-07-08 10:36:00,87.8,71.8,29.87,North,0,0.0,0.0,59,0.00,,,0.00,WUHU216HW,2013-07-08 14:36:00,
2013-07-08 10:37:00,87.8,71.8,29.87,North,0,0.0,0.0,59,0.00,,,0.00,WUHU216HW,2013-07-08 14:37:00,
2013-07-08 10:38:00,87.8,71.8,29.87,North,0,0.0,0.0,59,0.00,,,0.00,WUHU216HW,2013-07-08 14:38:00,
2013-07-08 10:40:00,87.8,71.8,29.87,North,0,0.0,0.0,59,0.00,,,0.00,WUHU216HW,2013-07-08 14:40:00,
2013-07-08 10:41:00,87.8,71.8,29.87,North,0,0.0,0.0,59,0.00,,,0.00,WUHU216HW,2013-07-08 14:41:00,
2013-07-08 10:42:00,87.7,71.6,29.87,North,0,0.0,0.0,59,0.00,,,0.00,WUHU216HW,2013-07-08 14:42:00,
2013-07-08 10:43:00,87.7,71.6,29.87,North,0,0.0,0.0,59,0.00,,,0.00,WUHU216HW,2013-07-08 14:43:00,
2013-07-08 10:45:00,87.7,72.2,29.87,North,0,0.0,0.0,60,0.00,,,0.00,WUHU216HW,2013-07-08 14:45:00,
2013-07-08 10:46:00,87.7,72.2,29.87,North,0,0.0,0.0,60,0.00,,,0.00,WUHU216HW,2013-07-08 14:46:00,
2013-07-08 10:47:00,87.8,72.4,29.87,North,0,0.0,0.0,60,0.00,,,0.00,WUHU216HW,2013-07-08 14:47:00,
2013-07-08 10:48:00,88.0,72.6,29.87,North,0,0.0,0.0,60,0.00,,,0.00,WUHU216HW,2013-07-08 14:48:00,
2013-07-08 10:51:00,88.6,72.5,29.87,North,0,0.0,0.0,59,0.00,,,0.00,WUHU216HW,2013-07-08 14:51:00,
2013-07-08 10:53:00,88.7,72.6,29.88,North,0,0.0,0.0,59,0.00,,,0.00,WUHU216HW,2013-07-08 14:53:00,
2013-07-08 10:54:00,88.9,72.3,29.88,North,0,0.0,0.0,58,0.00,,,0.00,WUHU216HW,2013-07-08 14:54:00,
2013-07-08 10:56:00,89.1,72.5,29.88,North,0,0.0,0.0,58,0.00,,,0.00,WUHU216HW,2013-07-08 14:56:00,
2013-07-08 10:58:00,89.1,71.9,29.88,North,0,0.0,0.0,57,0.00,,,0.00,WUHU216HW,2013-07-08 14:58:00,
2013-07-08 11:00:00,89.5,71.6,29.88,North,0,0.0,0.0,56,0.00,,,0.00,WUHU216HW,2013-07-08 15:00:00,
2013-07-08 11:01:00,89.6,72.4,29.88,North,0,0.0,0.0,57,0.00,,,0.00,WUHU216HW,2013-07-08 15:01:00,
2013-07-08 11:03:00,90.0,72.2,29.88,North,0,0.0,0.0,56,0.00,,,0.00,WUHU216HW,2013-07-08 15:03:00,
2013-07-08 11:05:00,89.6,71.8,29.88,North,0,0.0,0.0,56,0.00,,,0.00,WUHU216HW,2013-07-08 15:05:00,
2013-07-08 11:06:00,89.6,71.8,29.88,North,0,0.0,0.0,56,0.00,,,0.00,WUHU216HW,2013-07-08 15:06:00,
2013-07-08 11:07:00,89.6,71.8,29.88,North,0,0.0,0.0,56,0.00,,,0.00,WUHU216HW,2013-07-08 15:07:00,
2013-07-08 11:08:00,89.3,71.5,29.88,North,0,0.0,0.0,56,0.00,,,0.00,WUHU216HW,2013-07-08 15:08:00,
2013-07-08 11:10:00,88.9,71.2,29.88,North,0,0.0,0.0,56,0.00,,,0.00,WUHU216HW,2013-07-08 15:10:00,
2013-07-08 11:11:00,88.7,71.0,29.88,North,0,0.0,0.0,56,0.00,,,0.00,WUHU216HW,2013-07-08 15:11:00,
2013-07-08 11:12:00,88.6,70.8,29.88,North,0,0.0,0.0,56,0.00,,,0.00,WUHU216HW,2013-07-08 15:12:00,
2013-07-08 11:13:00,88.4,70.7,29.88,North,0,0.0,0.0,56,0.00,,,0.00,WUHU216HW,2013-07-08 15:13:00,
2013-07-08 11:15:00,88.2,70.6,29.88,North,0,0.0,0.0,56,0.00,,,0.00,WUHU216HW,2013-07-08 15:15:00,
2013-07-08 11:16:00,88.2,70.6,29.88,North,0,0.0,0.0,56,0.00,,,0.00,WUHU216HW,2013-07-08 15:16:00,
2013-07-08 11:17:00,88.2,70.6,29.88,North,0,0.0,0.0,56,0.00,,,0.00,WUHU216HW,2013-07-08 15:17:00,
2013-07-08 11:19:00,88.0,70.4,29.88,North,0,0.0,0.0,56,0.00,,,0.00,WUHU216HW,2013-07-08 15:19:00,
2013-07-08 11:20:00,88.0,70.4,29.88,North,0,0.0,0.0,56,0.00,,,0.00,WUHU216HW,2013-07-08 15:20:00,
2013-07-08 11:21:00,88.0,70.4,29.88,North,0,0.0,0.0,56,0.00,,,0.00,WUHU216HW,2013-07-08 15:21:00,
2013-07-08 11:22:00,88.0,70.4,29.88,North,0,0.0,0.0,56,0.00,,,0.00,WUHU216HW,2013-07-08 15:22:00,
2013-07-08 11:24:00,88.7,71.0,29.88,North,0,0.0,0.0,56,0.00,,,0.00,WUHU216HW,2013-07-08 15:24:00,
2013-07-08 11:25:00,89.1,71.4,29.88,North,0,0.0,0.0,56,0.00,,,0.00,WUHU216HW,2013-07-08 15:25:00,
2013-07-08 11:27:00,89.1,71.4,29.88,North,0,0.0,0.0,56,0.00,,,0.00,WUHU216HW,2013-07-08 15:27:00,
2013-07-08 11:28:00,89.3,70.9,29.88,North,0,0.0,0.0,55,0.00,,,0.00,WUHU216HW,2013-07-08 15:28:00,
2013-07-08 11:29:00,89.3,70.4,29.88,North,0,0.0,0.0,54,0.00,,,0.00,WUHU216HW,2013-07-08 15:29:00,
2013-07-08 11:31:00,89.5,71.1,29.88,North,0,0.0,0.0,55,0.00,,,0.00,WUHU216HW,2013-07-08 15:31:00,
2013-07-08 11:32:00,89.6,71.3,29.88,North,0,0.0,0.0,55,0.00,,,0.00,WUHU216HW,2013-07-08 15:32:00,
2013-07-08 11:33:00,90.0,71.7,29.88,North,0,0.0,0.0,55,0.00,,,0.00,WUHU216HW,2013-07-08 15:33:00,
2013-07-08 11:34:00,90.0,71.7,29.88,North,0,0.0,0.0,55,0.00,,,0.00,WUHU216HW,2013-07-08 15:34:00,
2013-07-08 11:36:00,90.4,71.9,29.88,North,0,0.0,0.0,55,0.00,,,0.00,WUHU216HW,2013-07-08 15:36:00,
2013-07-08 11:37:00,90.5,72.1,29.88,North,0,0.0,0.0,55,0.00,,,0.00,WUHU216HW,2013-07-08 15:37:00,
2013-07-08 11:38:00,90.7,72.3,29.88,North,0,0.0,0.0,55,0.00,,,0.00,WUHU216HW,2013-07-08 15:38:00,
2013-07-08 11:39:00,90.7,71.7,29.88,North,0,0.0,0.0,54,0.00,,,0.00,WUHU216HW,2013-07-08 15:39:00,
2013-07-08 11:41:00,90.7,71.7,29.88,North,0,0.0,0.0,54,0.00,,,0.00,WUHU216HW,2013-07-08 15:41:00,
2013-07-08 11:42:00,90.5,71.0,29.88,North,0,0.0,0.0,53,0.00,,,0.00,WUHU216HW,2013-07-08 15:42:00,
2013-07-08 11:43:00,90.2,71.2,29.88,North,0,0.0,0.0,54,0.00,,,0.00,WUHU216HW,2013-07-08 15:43:00,
2013-07-08 11:44:00,90.2,71.2,29.88,North,0,0.0,0.0,54,0.00,,,0.00,WUHU216HW,2013-07-08 15:44:00,
2013-07-08 11:46:00,89.8,70.9,29.88,North,0,0.0,0.0,54,0.00,,,0.00,WUHU216HW,2013-07-08 15:46:00,
2013-07-08 11:47:00,89.8,70.9,29.88,North,0,0.0,0.0,54,0.00,,,0.00,WUHU216HW,2013-07-08 15:47:00,
2013-07-08 11:49:00,89.6,70.7,29.88,North,0,0.0,0.0,54,0.00,,,0.00,WUHU216HW,2013-07-08 15:49:00,
2013-07-08 11:50:00,89.5,70.6,29.88,North,0,0.0,0.0,54,0.00,,,0.00,WUHU216HW,2013-07-08 15:50:00,
2013-07-08 11:52:00,89.3,70.9,29.88,North,0,0.0,0.0,55,0.00,,,0.00,WUHU216HW,2013-07-08 15:52:00,
2013-07-08 11:54:00,89.1,70.3,29.88,North,0,0.0,0.0,54,0.00,,,0.00,WUHU216HW,2013-07-08 15:54:00,
2013-07-08 11:55:00,89.1,70.3,29.88,North,0,0.0,0.0,54,0.00,,,0.00,WUHU216HW,2013-07-08 15:55:00,
2013-07-08 11:57:00,88.9,70.7,29.88,North,0,0.0,0.0,55,0.00,,,0.00,WUHU216HW,2013-07-08 15:57:00,
2013-07-08 11:58:00,88.9,70.7,29.88,North,0,0.0,0.0,55,0.00,,,0.00,WUHU216HW,2013-07-08 15:58:00,
2013-07-08 11:59:00,89.1,70.8,29.88,North,0,0.0,0.0,55,0.00,,,0.00,WUHU216HW,2013-07-08 15:59:00,
2013-07-08 12:00:00,89.3,70.9,29.88,North,0,0.0,0.0,55,0.00,,,0.00,WUHU216HW,2013-07-08 16:00:00,
2013-07-08 12:01:00,89.3,70.9,29.88,North,0,0.0,0.0,55,0.00,,,0.00,WUHU216HW,2013-07-08 16:01:00,
2013-07-08 12:02:00,89.6,71.3,29.88,North,0,0.0,0.0,55,0.00,,,0.00,WUHU216HW,2013-07-08 16:02:00,
2013-07-08 12:03:00,89.6,71.3,29.88,North,0,0.0,0.0,55,0.00,,,0.00,WUHU216HW,2013-07-08 16:03:00,
2013-07-08 12:05:00,90.2,71.2,29.88,North,0,0.0,0.0,54,0.00,,,0.00,WUHU216HW,2013-07-08 16:05:00,
2013-07-08 12:06:00,90.2,71.2,29.88,North,0,0.0,0.0,54,0.00,,,0.00,WUHU216HW,2013-07-08 16:06:00,
2013-07-08 12:08:00,90.4,70.8,29.88,North,0,0.0,0.0,53,0.00,,,0.00,WUHU216HW,2013-07-08 16:08:00,
2013-07-08 12:10:00,90.2,70.7,29.88,North,0,0.0,0.0,53,0.00,,,0.00,WUHU216HW,2013-07-08 16:10:00,
2013-07-08 12:11:00,90.2,70.7,29.88,North,0,0.0,0.0,53,0.00,,,0.00,WUHU216HW,2013-07-08 16:11:00,
2013-07-08 12:13:00,90.2,70.7,29.88,North,0,0.0,0.0,53,0.00,,,0.00,WUHU216HW,2013-07-08 16:13:00,
2013-07-08 12:15:00,88.9,70.1,29.88,North,0,0.0,0.0,54,0.00,,,0.00,WUHU216HW,2013-07-08 16:15:00,
2013-07-08 12:16:00,88.9,70.1,29.88,North,0,0.0,0.0,54,0.00,,,0.00,WUHU216HW,2013-07-08 16:16:00,
2013-07-08 12:18:00,88.6,69.8,29.88,North,0,0.0,0.0,54,0.00,,,0.00,WUHU216HW,2013-07-08 16:18:00,
2013-07-08 12:20:00,88.2,70.0,29.88,North,0,0.0,0.0,55,0.00,,,0.00,WUHU216HW,2013-07-08 16:20:00,
2013-07-08 12:21:00,88.2,70.0,29.88,North,0,0.0,0.0,55,0.00,,,0.00,WUHU216HW,2013-07-08 16:21:00,
2013-07-08 12:23:00,88.4,70.1,29.87,North,0,0.0,0.0,55,0.00,,,0.00,WUHU216HW,2013-07-08 16:23:00,
2013-07-08 12:25:00,88.7,71.0,29.87,North,0,0.0,0.0,56,0.00,,,0.00,WUHU216HW,2013-07-08 16:25:00,
2013-07-08 12:26:00,88.7,71.0,29.87,North,0,0.0,0.0,56,0.00,,,0.00,WUHU216HW,2013-07-08 16:26:00,
2013-07-08 12:27:00,88.9,71.2,29.87,North,0,0.0,0.0,56,0.00,,,0.00,WUHU216HW,2013-07-08 16:27:00,
2013-07-08 12:28:00,88.9,70.7,29.87,North,0,0.0,0.0,55,0.00,,,0.00,WUHU216HW,2013-07-08 16:28:00,
2013-07-08 12:31:00,89.8,71.5,29.87,North,0,0.0,0.0,55,0.00,,,0.00,WUHU216HW,2013-07-08 16:31:00,
2013-07-08 12:32:00,90.0,71.7,29.87,North,0,0.0,0.0,55,0.00,,,0.00,WUHU216HW,2013-07-08 16:32:00,
2013-07-08 12:33:00,90.4,71.4,29.87,North,0,0.0,0.0,54,0.00,,,0.00,WUHU216HW,2013-07-08 16:33:00,
2013-07-08 12:34:00,90.4,71.4,29.87,North,0,0.0,0.0,54,0.00,,,0.00,WUHU216HW,2013-07-08 16:34:00,
2013-07-08 12:36:00,90.5,70.5,29.87,North,0,0.0,0.0,52,0.00,,,0.00,WUHU216HW,2013-07-08 16:36:00,
2013-07-08 12:37:00,90.5,70.5,29.87,North,0,0.0,0.0,52,0.00,,,0.00,WUHU216HW,2013-07-08 16:37:00,
2013-07-08 12:38:00,90.5,70.5,29.87,North,0,0.0,0.0,52,0.00,,,0.00,WUHU216HW,2013-07-08 16:38:00,
2013-07-08 12:39:00,90.5,70.5,29.87,North,0,0.0,0.0,52,0.00,,,0.00,WUHU216HW,2013-07-08 16:39:00,
2013-07-08 12:41:00,90.4,70.8,29.87,North,0,0.0,0.0,53,0.00,,,0.00,WUHU216HW,2013-07-08 16:41:00,
2013-07-08 12:42:00,90.2,70.7,29.87,North,0,0.0,0.0,53,0.00,,,0.00,WUHU216HW,2013-07-08 16:42:00,
2013-07-08 12:43:00,90.2,70.7,29.87,North,0,0.0,0.0,53,0.00,,,0.00,WUHU216HW,2013-07-08 16:43:00,
2013-07-08 12:44:00,90.0,70.6,29.87,North,0,0.0,0.0,53,0.00,,,0.00,WUHU216HW,2013-07-08 16:44:00,
2013-07-08 12:47:00,90.2,70.7,29.87,North,0,0.0,0.0,53,0.00,,,0.00,WUHU216HW,2013-07-08 16:47:00,
2013-07-08 12:48:00,90.4,70.8,29.87,North,0,0.0,0.0,53,0.00,,,0.00,WUHU216HW,2013-07-08 16:48:00,
2013-07-08 12:49:00,90.4,70.8,29.87,North,0,0.0,0.0,53,0.00,,,0.00,WUHU216HW,2013-07-08 16:49:00,
2013-07-08 12:52:00,90.2,70.1,29.87,North,0,0.0,0.0,52,0.00,,,0.00,WUHU216HW,2013-07-08 16:52:00,
2013-07-08 12:53:00,90.0,70.0,29.87,North,0,0.0,0.0,52,0.00,,,0.00,WUHU216HW,2013-07-08 16:53:00,
2013-07-08 12:54:00,89.8,70.4,29.87,North,0,0.0,0.0,53,0.00,,,0.00,WUHU216HW,2013-07-08 16:54:00,
2013-07-08 12:57:00,89.5,70.0,29.87,North,0,0.0,0.0,53,0.00,,,0.00,WUHU216HW,2013-07-08 16:57:00,
2013-07-08 12:58:00,89.1,69.8,29.87,North,0,0.0,0.0,53,0.00,,,0.00,WUHU216HW,2013-07-08 16:58:00,
2013-07-08 13:00:00,88.9,69.6,29.87,North,0,0.0,0.0,53,0.00,,,0.00,WUHU216HW,2013-07-08 17:00:00,
2013-07-08 13:03:00,87.8,68.0,29.87,North,0,0.0,0.0,52,0.00,,,0.00,WUHU216HW,2013-07-08 17:03:00,
2013-07-08 13:06:00,86.9,68.3,29.87,North,0,0.0,0.0,54,0.00,,,0.00,WUHU216HW,2013-07-08 17:06:00,
2013-07-08 13:08:00,86.8,68.7,29.87,North,0,0.0,0.0,55,0.00,,,0.00,WUHU216HW,2013-07-08 17:08:00,
2013-07-08 13:09:00,86.8,68.7,29.87,North,0,0.0,0.0,55,0.00,,,0.00,WUHU216HW,2013-07-08 17:09:00,
2013-07-08 13:13:00,86.8,68.7,29.87,North,0,0.0,0.0,55,0.00,,,0.00,WUHU216HW,2013-07-08 17:13:00,
2013-07-08 13:14:00,87.5,69.3,29.87,North,0,0.0,0.0,55,0.00,,,0.00,WUHU216HW,2013-07-08 17:14:00,
2013-07-08 13:15:00,87.5,69.3,29.87,North,0,0.0,0.0,55,0.00,,,0.00,WUHU216HW,2013-07-08 17:15:00,
2013-07-08 13:18:00,87.5,69.3,29.87,North,0,0.0,0.0,55,0.00,,,0.00,WUHU216HW,2013-07-08 17:18:00,
2013-07-08 13:19:00,87.5,69.3,29.87,North,0,0.0,0.0,55,0.00,,,0.00,WUHU216HW,2013-07-08 17:19:00,
2013-07-08 13:20:00,87.8,69.7,29.87,North,0,0.0,0.0,55,0.00,,,0.00,WUHU216HW,2013-07-08 17:20:00,
2013-07-08 13:21:00,87.7,69.5,29.87,North,0,0.0,0.0,55,0.00,,,0.00,WUHU216HW,2013-07-08 17:21:00,
2013-07-08 13:23:00,87.8,69.7,29.87,North,0,0.0,0.0,55,0.00,,,0.00,WUHU216HW,2013-07-08 17:23:00,
2013-07-08 13:24:00,87.8,69.1,29.87,North,0,0.0,0.0,54,0.00,,,0.00,WUHU216HW,2013-07-08 17:24:00,
2013-07-08 13:26:00,87.8,69.1,29.87,North,0,0.0,0.0,54,0.00,,,0.00,WUHU216HW,2013-07-08 17:26:00,
2013-07-08 13:29:00,88.2,69.5,29.86,North,0,0.0,0.0,54,0.00,,,0.00,WUHU216HW,2013-07-08 17:29:00,
2013-07-08 13:31:00,88.4,69.6,29.86,North,0,0.0,0.0,54,0.00,,,0.00,WUHU216HW,2013-07-08 17:31:00,
2013-07-08 13:32:00,88.6,69.2,29.86,North,0,0.0,0.0,53,0.00,,,0.00,WUHU216HW,2013-07-08 17:32:00,
2013-07-08 13:34:00,88.6,69.2,29.86,North,0,0.0,0.0,53,0.00,,,0.00,WUHU216HW,2013-07-08 17:34:00,
2013-07-08 13:36:00,88.6,69.8,29.86,North,0,0.0,0.0,54,0.00,,,0.00,WUHU216HW,2013-07-08 17:36:00,
2013-07-08 13:37:00,88.6,69.8,29.86,North,0,0.0,0.0,54,0.00,,,0.00,WUHU216HW,2013-07-08 17:37:00,
2013-07-08 13:39:00,88.4,69.6,29.86,North,0,0.0,0.0,54,0.00,,,0.00,WUHU216HW,2013-07-08 17:39:00,
2013-07-08 13:41:00,88.6,69.8,29.86,North,0,0.0,0.0,54,0.00,,,0.00,WUHU216HW,2013-07-08 17:41:00,
2013-07-08 13:43:00,88.6,69.8,29.86,North,0,0.0,0.0,54,0.00,,,0.00,WUHU216HW,2013-07-08 17:43:00,
2013-07-08 13:44:00,88.6,69.8,29.86,North,0,0.0,0.0,54,0.00,,,0.00,WUHU216HW,2013-07-08 17:44:00,
2013-07-08 13:47:00,88.4,69.0,29.86,North,0,0.0,0.0,53,0.00,,,0.00,WUHU216HW,2013-07-08 17:47:00,
2013-07-08 13:49:00,88.6,69.8,29.86,North,0,0.0,0.0,54,0.00,,,0.00,WUHU216HW,2013-07-08 17:49:00,
2013-07-08 13:50:00,88.6,69.8,29.86,North,0,0.0,0.0,54,0.00,,,0.00,WUHU216HW,2013-07-08 17:50:00,
2013-07-08 13:52:00,88.6,69.8,29.86,North,0,0.0,0.0,54,0.00,,,0.00,WUHU216HW,2013-07-08 17:52:00,
2013-07-08 13:54:00,88.6,69.2,29.86,North,0,0.0,0.0,53,0.00,,,0.00,WUHU216HW,2013-07-08 17:54:00,
2013-07-08 13:55:00,88.6,69.8,29.86,North,0,0.0,0.0,54,0.00,,,0.00,WUHU216HW,2013-07-08 17:55:00,
2013-07-08 13:57:00,88.6,69.2,29.86,North,0,0.0,0.0,53,0.00,,,0.00,WUHU216HW,2013-07-08 17:57:00,
2013-07-08 14:00:00,88.2,69.0,29.86,North,0,0.0,0.0,53,0.00,,,0.00,WUHU216HW,2013-07-08 18:00:00,
2013-07-08 14:01:00,88.2,69.5,29.86,North,0,0.0,0.0,54,0.00,,,0.00,WUHU216HW,2013-07-08 18:01:00,
2013-07-08 14:02:00,87.8,68.6,29.86,North,0,0.0,0.0,53,0.00,,,0.00,WUHU216HW,2013-07-08 18:02:00,
2013-07-08 14:06:00,87.7,68.9,29.86,North,0,0.0,0.0,54,0.00,,,0.00,WUHU216HW,2013-07-08 18:06:00,
2013-07-08 14:09:00,87.5,68.8,29.86,North,0,0.0,0.0,54,0.00,,,0.00,WUHU216HW,2013-07-08 18:09:00,
2013-07-08 14:11:00,87.5,68.8,29.86,North,0,0.0,0.0,54,0.00,,,0.00,WUHU216HW,2013-07-08 18:11:00,
2013-07-08 14:13:00,87.5,68.8,29.85,North,0,0.0,0.0,54,0.00,,,0.00,WUHU216HW,2013-07-08 18:13:00,
2013-07-08 14:15:00,87.5,68.8,29.85,North,0,0.0,0.0,54,0.00,,,0.00,WUHU216HW,2013-07-08 18:15:00,
2013-07-08 14:16:00,87.7,68.9,29.85,North,0,0.0,0.0,54,0.00,,,0.00,WUHU216HW,2013-07-08 18:16:00,
2013-07-08 14:19:00,87.7,68.9,29.85,North,0,0.0,0.0,54,0.00,,,0.00,WUHU216HW,2013-07-08 18:19:00,
2013-07-08 14:21:00,87.7,68.9,29.85,North,0,0.0,0.0,54,0.00,,,0.00,WUHU216HW,2013-07-08 18:21:00,
2013-07-08 14:24:00,87.7,68.9,29.85,North,0,0.0,0.0,54,0.00,,,0.00,WUHU216HW,2013-07-08 18:24:00,
2013-07-08 14:26:00,87.7,68.9,29.85,North,0,0.0,0.0,54,0.00,,,0.00,WUHU216HW,2013-07-08 18:26:00,
2013-07-08 14:27:00,87.5,68.8,29.85,North,0,0.0,0.0,54,0.00,,,0.00,WUHU216HW,2013-07-08 18:27:00,
2013-07-08 14:29:00,87.5,68.8,29.85,North,0,0.0,0.0,54,0.00,,,0.00,WUHU216HW,2013-07-08 18:29:00,
2013-07-08 14:31:00,87.3,69.1,29.85,North,0,0.0,0.0,55,0.00,,,0.00,WUHU216HW,2013-07-08 18:31:00,
2013-07-08 14:32:00,87.3,69.1,29.85,North,0,0.0,0.0,55,0.00,,,0.00,WUHU216HW,2013-07-08 18:32:00,
2013-07-08 14:35:00,87.8,69.1,29.85,North,0,0.0,0.0,54,0.00,,,0.00,WUHU216HW,2013-07-08 18:35:00,
2013-07-08 14:36:00,87.8,69.1,29.85,North,0,0.0,0.0,54,0.00,,,0.00,WUHU216HW,2013-07-08 18:36:00,
2013-07-08 14:37:00,87.8,69.1,29.85,North,0,0.0,0.0,54,0.00,,,0.00,WUHU216HW,2013-07-08 18:37:00,
2013-07-08 14:42:00,88.9,70.7,29.85,North,0,0.0,0.0,55,0.00,,,0.00,WUHU216HW,2013-07-08 18:42:00,
2013-07-08 14:47:00,90.2,70.7,29.85,North,0,0.0,0.0,53,0.00,,,0.00,WUHU216HW,2013-07-08 18:47:00,
2013-07-08 14:50:00,90.4,70.3,29.84,North,0,0.0,0.0,52,0.00,,,0.00,WUHU216HW,2013-07-08 18:50:00,
2013-07-08 14:52:00,90.7,70.1,29.85,North,0,0.0,0.0,51,0.00,,,0.00,WUHU216HW,2013-07-08 18:52:00,
2013-07-08 14:54:00,90.7,70.7,29.85,North,0,0.0,0.0,52,0.00,,,0.00,WUHU216HW,2013-07-08 18:54:00,
2013-07-08 14:55:00,90.7,70.1,29.85,North,0,0.0,0.0,51,0.00,,,0.00,WUHU216HW,2013-07-08 18:55:00,
2013-07-08 14:58:00,90.2,69.0,29.85,North,0,0.0,0.0,50,0.00,,,0.00,WUHU216HW,2013-07-08 18:58:00,
2013-07-08 14:59:00,89.8,68.8,29.84,North,0,0.0,0.0,50,0.00,,,0.00,WUHU216HW,2013-07-08 18:59:00,
2013-07-08 15:01:00,89.3,67.6,29.85,North,0,0.0,0.0,49,0.00,,,0.00,WUHU216HW,2013-07-08 19:01:00,
2013-07-08 15:04:00,87.8,68.0,29.85,North,0,0.0,0.0,52,0.00,,,0.00,WUHU216HW,2013-07-08 19:04:00,
2013-07-08 15:05:00,87.8,68.0,29.85,North,0,0.0,0.0,52,0.00,,,0.00,WUHU216HW,2013-07-08 19:05:00,
2013-07-08 15:06:00,87.7,67.9,29.85,North,0,0.0,0.0,52,0.00,,,0.00,WUHU216HW,2013-07-08 19:06:00,
2013-07-08 15:09:00,87.5,68.2,29.85,North,0,0.0,0.0,53,0.00,,,0.00,WUHU216HW,2013-07-08 19:09:00,
2013-07-08 15:12:00,86.9,67.8,29.85,North,0,0.0,0.0,53,0.00,,,0.00,WUHU216HW,2013-07-08 19:12:00,
2013-07-08 15:14:00,86.8,67.6,29.85,North,0,0.0,0.0,53,0.00,,,0.00,WUHU216HW,2013-07-08 19:14:00,
2013-07-08 15:19:00,85.7,67.2,29.84,North,0,0.0,0.0,54,0.00,,,0.00,WUHU216HW,2013-07-08 19:19:00,
2013-07-08 15:20:00,85.5,67.5,29.85,North,0,0.0,0.0,55,0.00,,,0.00,WUHU216HW,2013-07-08 19:20:00,
2013-07-08 15:24:00,85.3,67.9,29.85,North,0,0.0,0.0,56,0.00,,,0.00,WUHU216HW,2013-07-08 19:24:00,
2013-07-08 15:25:00,85.3,67.9,29.84,North,0,0.0,0.0,56,0.00,,,0.00,WUHU216HW,2013-07-08 19:25:00,
2013-07-08 15:30:00,85.3,67.3,29.85,North,0,0.0,0.0,55,0.00,,,0.00,WUHU216HW,2013-07-08 19:30:00,
2013-07-08 15:31:00,85.3,67.3,29.85,North,0,0.0,0.0,55,0.00,,,0.00,WUHU216HW,2013-07-08 19:31:00,
2013-07-08 15:34:00,85.0,67.0,29.84,North,0,0.0,0.0,55,0.00,,,0.00,WUHU216HW,2013-07-08 19:34:00,
2013-07-08 15:36:00,84.6,67.1,29.84,North,0,0.0,0.0,56,0.00,,,0.00,WUHU216HW,2013-07-08 19:36:00,
2013-07-08 15:39:00,83.9,67.1,29.84,North,0,0.0,0.0,57,0.00,,,0.00,WUHU216HW,2013-07-08 19:39:00,
2013-07-08 15:42:00,83.5,66.7,29.84,North,0,0.0,0.0,57,0.00,,,0.00,WUHU216HW,2013-07-08 19:42:00,
2013-07-08 15:44:00,82.8,66.0,29.84,North,0,0.0,0.0,57,0.00,,,0.00,WUHU216HW,2013-07-08 19:44:00,
2013-07-08 15:48:00,82.1,65.3,29.84,North,0,0.0,0.0,57,0.00,,,0.00,WUHU216HW,2013-07-08 19:48:00,
2013-07-08 15:50:00,81.5,65.3,29.84,North,0,0.0,0.0,58,0.00,,,0.00,WUHU216HW,2013-07-08 19:50:00,
2013-07-08 15:53:00,80.5,64.8,29.84,North,0,0.0,0.0,59,0.00,,,0.00,WUHU216HW,2013-07-08 19:53:00,
2013-07-08 15:56:00,79.6,65.0,29.84,North,0,0.0,0.0,61,0.00,,,0.00,WUHU216HW,2013-07-08 19:56:00,
2013-07-08 15:58:00,79.2,65.1,29.84,North,0,0.0,0.0,62,0.00,,,0.00,WUHU216HW,2013-07-08 19:58:00,
2013-07-08 16:00:00,79.0,64.9,29.84,North,0,0.0,0.0,62,0.00,,,0.00,WUHU216HW,2013-07-08 20:00:00,
2013-07-08 16:01:00,78.7,65.0,29.84,North,0,0.0,0.0,63,0.00,,,0.00,WUHU216HW,2013-07-08 20:01:00,
2013-07-08 16:05:00,78.5,65.3,29.84,North,0,0.0,0.0,64,0.00,,,0.00,WUHU216HW,2013-07-08 20:05:00,
2013-07-08 16:06:00,78.5,65.7,29.84,North,0,0.0,0.0,65,0.00,,,0.00,WUHU216HW,2013-07-08 20:06:00,
2013-07-08 16:10:00,78.3,65.1,29.84,North,0,0.0,0.0,64,0.00,,,0.00,WUHU216HW,2013-07-08 20:10:00,
2013-07-08 16:11:00,78.5,65.7,29.84,North,0,0.0,0.0,65,0.00,,,0.00,WUHU216HW,2013-07-08 20:11:00,
2013-07-08 16:15:00,78.8,66.1,29.83,North,0,0.0,0.0,65,0.00,,,0.00,WUHU216HW,2013-07-08 20:15:00,
2013-07-08 16:16:00,78.8,66.1,29.84,North,0,0.0,0.0,65,0.00,,,0.00,WUHU216HW,2013-07-08 20:16:00,
2013-07-08 16:19:00,79.2,66.9,29.84,North,0,0.0,0.0,66,0.00,,,0.00,WUHU216HW,2013-07-08 20:19:00,
2013-07-08 16:21:00,79.6,67.1,29.84,North,0,0.0,0.0,66,0.00,,,0.00,WUHU216HW,2013-07-08 20:21:00,
2013-07-08 16:26:00,79.9,67.5,29.84,North,0,0.0,0.0,66,0.00,,,0.00,WUHU216HW,2013-07-08 20:26:00,
2013-07-08 16:27:00,79.9,67.5,29.84,North,0,0.0,0.0,66,0.00,,,0.00,WUHU216HW,2013-07-08 20:27:00,
2013-07-08 16:28:00,79.9,67.5,29.84,North,0,0.0,0.0,66,0.00,,,0.00,WUHU216HW,2013-07-08 20:28:00,
2013-07-08 16:32:00,80.1,67.2,29.84,North,0,0.0,0.0,65,0.00,,,0.00,WUHU216HW,2013-07-08 20:32:00,
2013-07-08 16:33:00,80.3,67.4,29.84,North,0,0.0,0.0,65,0.00,,,0.00,WUHU216HW,2013-07-08 20:33:00,
2013-07-08 16:38:00,80.1,67.2,29.84,North,0,0.0,0.0,65,0.00,,,0.00,WUHU216HW,2013-07-08 20:38:00,
2013-07-08 16:39:00,80.1,67.2,29.84,North,0,0.0,0.0,65,0.00,,,0.00,WUHU216HW,2013-07-08 20:39:00,
2013-07-08 16:43:00,80.3,67.9,29.84,North,0,0.0,0.0,66,0.00,,,0.00,WUHU216HW,2013-07-08 20:43:00,
2013-07-08 16:44:00,80.3,67.9,29.84,North,0,0.0,0.0,66,0.00,,,0.00,WUHU216HW,2013-07-08 20:44:00,
2013-07-08 16:47:00,81.2,68.2,29.83,North,0,0.0,0.0,65,0.00,,,0.00,WUHU216HW,2013-07-08 20:47:00,
2013-07-08 16:49:00,81.4,68.4,29.83,North,0,0.0,0.0,65,0.00,,,0.00,WUHU216HW,2013-07-08 20:49:00,
2013-07-08 16:50:00,81.5,68.6,29.83,North,0,0.0,0.0,65,0.00,,,0.00,WUHU216HW,2013-07-08 20:50:00,
2013-07-08 16:52:00,81.5,68.6,29.83,North,0,0.0,0.0,65,0.00,,,0.00,WUHU216HW,2013-07-08 20:52:00,
2013-07-08 16:54:00,81.7,68.3,29.83,North,0,0.0,0.0,64,0.00,,,0.00,WUHU216HW,2013-07-08 20:54:00,
2013-07-08 16:56:00,81.9,68.5,29.83,North,0,0.0,0.0,64,0.00,,,0.00,WUHU216HW,2013-07-08 20:56:00,
2013-07-08 17:00:00,82.1,68.6,29.83,North,0,0.0,0.0,64,0.00,,,0.00,WUHU216HW,2013-07-08 21:00:00,
2013-07-08 17:01:00,82.1,68.1,29.83,North,0,0.0,0.0,63,0.00,,,0.00,WUHU216HW,2013-07-08 21:01:00,
2013-07-08 17:05:00,82.6,68.7,29.83,North,0,0.0,0.0,63,0.00,,,0.00,WUHU216HW,2013-07-08 21:05:00,
2013-07-08 17:08:00,82.8,68.9,29.83,North,0,0.0,0.0,63,0.00,,,0.00,WUHU216HW,2013-07-08 21:08:00,
2013-07-08 17:10:00,83.2,69.7,29.83,North,0,0.0,0.0,64,0.00,,,0.00,WUHU216HW,2013-07-08 21:10:00,
2013-07-08 17:11:00,83.2,69.7,29.83,North,0,0.0,0.0,64,0.00,,,0.00,WUHU216HW,2013-07-08 21:11:00,
2013-07-08 17:13:00,83.5,69.1,29.83,North,0,0.0,0.0,62,0.00,,,0.00,WUHU216HW,2013-07-08 21:13:00,
2013-07-08 17:16:00,83.9,69.5,29.83,North,0,0.0,0.0,62,0.00,,,0.00,WUHU216HW,2013-07-08 21:16:00,
2013-07-08 17:17:00,84.1,69.2,29.83,North,0,0.0,0.0,61,0.00,,,0.00,WUHU216HW,2013-07-08 21:17:00,
2013-07-08 17:18:00,84.1,69.2,29.83,North,0,0.0,0.0,61,0.00,,,0.00,WUHU216HW,2013-07-08 21:18:00,
2013-07-08 17:22:00,84.1,68.8,29.82,North,0,0.0,0.0,60,0.00,,,0.00,WUHU216HW,2013-07-08 21:22:00,
2013-07-08 17:23:00,84.2,68.9,29.82,North,0,0.0,0.0,60,0.00,,,0.00,WUHU216HW,2013-07-08 21:23:00,
2013-07-08 17:28:00,83.9,69.0,29.83,North,0,0.0,0.0,61,0.00,,,0.00,WUHU216HW,2013-07-08 21:28:00,
2013-07-08 17:29:00,83.9,69.0,29.83,North,0,0.0,0.0,61,0.00,,,0.00,WUHU216HW,2013-07-08 21:29:00,
2013-07-08 17:34:00,83.7,68.9,29.83,North,0,0.0,0.0,61,0.00,,,0.00,WUHU216HW,2013-07-08 21:34:00,
2013-07-08 17:36:00,83.5,68.7,29.83,North,0,0.0,0.0,61,0.00,,,0.00,WUHU216HW,2013-07-08 21:36:00,
2013-07-08 17:39:00,83.2,68.8,29.83,North,0,0.0,0.0,62,0.00,,,0.00,WUHU216HW,2013-07-08 21:39:00,
2013-07-08 17:41:00,83.3,68.9,29.83,North,0,0.0,0.0,62,0.00,,,0.00,WUHU216HW,2013-07-08 21:41:00,
2013-07-08 17:45:00,83.2,69.2,29.84,North,0,0.0,0.0,63,0.00,,,0.00,WUHU216HW,2013-07-08 21:45:00,
2013-07-08 17:48:00,82.8,69.8,29.84,North,0,0.0,0.0,65,0.00,,,0.00,WUHU216HW,2013-07-08 21:48:00,
2013-07-08 17:52:00,81.4,68.4,29.84,North,0,0.0,0.0,65,0.00,,,0.00,WUHU216HW,2013-07-08 21:52:00,
2013-07-08 17:53:00,81.2,68.7,29.84,North,0,0.0,0.0,66,0.00,,,0.00,WUHU216HW,2013-07-08 21:53:00,
2013-07-08 17:54:00,80.8,68.4,29.84,North,0,0.0,0.0,66,0.00,,,0.00,WUHU216HW,2013-07-08 21:54:00,
2013-07-08 17:58:00,79.9,67.5,29.84,North,0,0.0,0.0,66,0.00,,,0.00,WUHU216HW,2013-07-08 21:58:00,
2013-07-08 17:59:00,79.9,67.5,29.84,North,0,0.0,0.0,66,0.00,,,0.00,WUHU216HW,2013-07-08 21:59:00,
2013-07-08 18:04:00,79.6,67.1,29.84,North,0,0.0,0.0,66,0.00,,,0.00,WUHU216HW,2013-07-08 22:04:00,
2013-07-08 18:05:00,79.2,66.9,29.84,North,0,0.0,0.0,66,0.00,,,0.00,WUHU216HW,2013-07-08 22:05:00,
2013-07-08 18:11:00,78.8,67.8,29.84,North,0,0.0,0.0,69,0.00,,,0.00,WUHU216HW,2013-07-08 22:11:00,
2013-07-08 18:12:00,78.7,67.6,29.83,North,0,0.0,0.0,69,0.00,,,0.00,WUHU216HW,2013-07-08 22:12:00,
2013-07-08 18:16:00,78.5,67.1,29.83,North,0,0.0,0.0,68,0.00,,,0.00,WUHU216HW,2013-07-08 22:16:00,
2013-07-08 18:17:00,78.5,67.1,29.83,North,0,0.0,0.0,68,0.00,,,0.00,WUHU216HW,2013-07-08 22:17:00,
2013-07-08 18:18:00,78.5,67.5,29.83,North,0,0.0,0.0,69,0.00,,,0.00,WUHU216HW,2013-07-08 22:18:00,
2013-07-08 18:21:00,78.1,67.2,29.84,North,0,0.0,0.0,69,0.00,,,0.00,WUHU216HW,2013-07-08 22:21:00,
2013-07-08 18:23:00,77.8,67.2,29.84,North,0,0.0,0.0,70,0.00,,,0.00,WUHU216HW,2013-07-08 22:23:00,
2013-07-08 18:25:00,77.4,67.0,29.84,North,0,0.0,0.0,70,0.00,,,0.00,WUHU216HW,2013-07-08 22:25:00,
2013-07-08 18:28:00,77.4,67.0,29.84,North,0,0.0,0.0,70,0.00,,,0.00,WUHU216HW,2013-07-08 22:28:00,
2013-07-08 18:29:00,77.4,67.3,29.84,North,0,0.0,0.0,71,0.00,,,0.00,WUHU216HW,2013-07-08 22:29:00,
2013-07-08 18:31:00,77.4,67.3,29.84,North,0,0.0,0.0,71,0.00,,,0.00,WUHU216HW,2013-07-08 22:31:00,
2013-07-08 18:34:00,77.2,67.1,29.84,North,0,0.0,0.0,71,0.00,,,0.00,WUHU216HW,2013-07-08 22:34:00,
2013-07-08 18:35:00,77.0,67.0,29.84,North,0,0.0,0.0,71,0.00,,,0.00,WUHU216HW,2013-07-08 22:35:00,
2013-07-08 18:38:00,77.0,67.0,29.84,North,0,0.0,0.0,71,0.00,,,0.00,WUHU216HW,2013-07-08 22:38:00,
2013-07-08 18:39:00,76.7,66.6,29.84,North,0,0.0,0.0,71,0.00,,,0.00,WUHU216HW,2013-07-08 22:39:00,
2013-07-08 18:41:00,76.7,66.6,29.84,North,0,0.0,0.0,71,0.00,,,0.00,WUHU216HW,2013-07-08 22:41:00,
2013-07-08 18:44:00,76.3,66.2,29.84,North,0,0.0,0.0,71,0.00,,,0.00,WUHU216HW,2013-07-08 22:44:00,
2013-07-08 18:45:00,76.3,66.2,29.84,North,0,0.0,0.0,71,0.00,,,0.00,WUHU216HW,2013-07-08 22:45:00,
2013-07-08 18:47:00,76.1,66.1,29.84,North,0,0.0,0.0,71,0.00,,,0.00,WUHU216HW,2013-07-08 22:47:00,
2013-07-08 18:49:00,76.1,65.7,29.84,North,0,0.0,0.0,70,0.00,,,0.00,WUHU216HW,2013-07-08 22:49:00,
2013-07-08 18:51:00,76.0,65.5,29.84,North,0,0.0,0.0,70,0.00,,,0.00,WUHU216HW,2013-07-08 22:51:00,
2013-07-08 18:54:00,76.0,66.3,29.85,North,0,0.0,0.0,72,0.00,,,0.00,WUHU216HW,2013-07-08 22:54:00,
2013-07-08 18:55:00,76.0,65.9,29.85,North,0,0.0,0.0,71,0.00,,,0.00,WUHU216HW,2013-07-08 22:55:00,
2013-07-08 18:57:00,76.0,66.3,29.85,North,0,0.0,0.0,72,0.00,,,0.00,WUHU216HW,2013-07-08 22:57:00,
2013-07-08 19:00:00,76.1,66.9,29.85,North,0,0.0,0.0,73,0.00,,,0.00,WUHU216HW,2013-07-08 23:00:00,
2013-07-08 19:01:00,76.1,67.2,29.85,North,0,0.0,0.0,74,0.01,,,0.02,WUHU216HW,2013-07-08 23:01:00,
2013-07-08 19:03:00,76.3,68.2,29.85,North,0,0.0,0.0,76,0.02,,,0.02,WUHU216HW,2013-07-08 23:03:00,
2013-07-08 19:05:00,76.3,68.9,29.85,North,0,0.0,0.0,78,0.02,,,0.02,WUHU216HW,2013-07-08 23:05:00,
2013-07-08 19:07:00,76.3,68.9,29.85,North,0,0.0,0.0,78,0.02,,,0.02,WUHU216HW,2013-07-08 23:07:00,
2013-07-08 19:08:00,76.3,68.9,29.85,North,0,0.0,0.0,78,0.02,,,0.02,WUHU216HW,2013-07-08 23:08:00,
2013-07-08 19:12:00,76.3,68.2,29.85,North,0,0.0,0.0,76,0.02,,,0.02,WUHU216HW,2013-07-08 23:12:00,
2013-07-08 19:13:00,76.3,68.6,29.85,North,0,0.0,0.0,77,0.02,,,0.02,WUHU216HW,2013-07-08 23:13:00,
2013-07-08 19:15:00,76.3,68.2,29.84,North,0,0.0,0.0,76,0.02,,,0.02,WUHU216HW,2013-07-08 23:15:00,
2013-07-08 19:17:00,76.3,68.6,29.84,North,0,0.0,0.0,77,0.02,,,0.02,WUHU216HW,2013-07-08 23:17:00,
2013-07-08 19:18:00,76.3,68.6,29.84,North,0,0.0,0.0,77,0.02,,,0.02,WUHU216HW,2013-07-08 23:18:00,
2013-07-08 19:23:00,76.5,68.8,29.84,North,0,0.0,0.0,77,0.02,,,0.02,WUHU216HW,2013-07-08 23:23:00,
2013-07-08 19:24:00,76.5,68.8,29.84,North,0,0.0,0.0,77,0.02,,,0.02,WUHU216HW,2013-07-08 23:24:00,
2013-07-08 19:28:00,76.5,68.8,29.85,North,0,0.0,0.0,77,0.02,,,0.02,WUHU216HW,2013-07-08 23:28:00,
2013-07-08 19:29:00,76.5,68.8,29.85,North,0,0.0,0.0,77,0.02,,,0.02,WUHU216HW,2013-07-08 23:29:00,
2013-07-08 19:34:00,76.3,68.2,29.85,North,0,0.0,0.0,76,0.02,,,0.02,WUHU216HW,2013-07-08 23:34:00,
2013-07-08 19:39:00,76.0,67.9,29.85,North,0,0.0,0.0,76,0.02,,,0.02,WUHU216HW,2013-07-08 23:39:00,
2013-07-08 19:40:00,76.0,67.9,29.85,North,0,0.0,0.0,76,0.02,,,0.02,WUHU216HW,2013-07-08 23:40:00,
2013-07-08 19:44:00,76.0,67.9,29.85,North,0,0.0,0.0,76,0.02,,,0.02,WUHU216HW,2013-07-08 23:44:00,
2013-07-08 19:45:00,76.0,67.9,29.85,North,0,0.0,0.0,76,0.02,,,0.02,WUHU216HW,2013-07-08 23:45:00,
2013-07-08 19:48:00,76.0,67.9,29.85,North,0,0.0,0.0,76,0.02,,,0.02,WUHU216HW,2013-07-08 23:48:00,
2013-07-08 19:50:00,75.8,67.7,29.85,North,0,0.0,0.0,76,0.02,,,0.02,WUHU216HW,2013-07-08 23:50:00,
2013-07-08 19:53:00,75.8,67.7,29.85,North,0,0.0,0.0,76,0.02,,,0.02,WUHU216HW,2013-07-08 23:53:00,
2013-07-08 19:55:00,75.8,67.7,29.85,North,0,0.0,0.0,76,0.02,,,0.02,WUHU216HW,2013-07-08 23:55:00,
2013-07-08 19:57:00,75.8,67.7,29.85,North,0,0.0,0.0,76,0.02,,,0.02,WUHU216HW,2013-07-08 23:57:00,
2013-07-08 19:59:00,75.6,68.0,29.85,North,0,0.0,0.0,77,0.02,,,0.02,WUHU216HW,2013-07-08 23:59:00,
2013-07-08 20:02:00,75.6,68.0,29.85,North,0,0.0,0.0,77,0.00,,,0.02,WUHU216HW,2013-07-09 00:02:00,
2013-07-08 20:04:00,75.6,68.0,29.85,North,0,0.0,0.0,77,0.00,,,0.02,WUHU216HW,2013-07-09 00:04:00,
2013-07-08 20:08:00,75.4,67.8,29.85,North,0,0.0,0.0,77,0.00,,,0.02,WUHU216HW,2013-07-09 00:08:00,
2013-07-08 20:09:00,75.4,67.8,29.85,North,0,0.0,0.0,77,0.00,,,0.02,WUHU216HW,2013-07-09 00:09:00,
2013-07-08 20:13:00,75.2,68.0,29.85,North,0,0.0,0.0,78,0.00,,,0.02,WUHU216HW,2013-07-09 00:13:00,
2013-07-08 20:14:00,75.2,68.0,29.85,North,0,0.0,0.0,78,0.00,,,0.02,WUHU216HW,2013-07-09 00:14:00,
2013-07-08 20:19:00,75.2,68.0,29.85,North,0,0.0,0.0,78,0.00,,,0.02,WUHU216HW,2013-07-09 00:19:00,
2013-07-08 20:20:00,75.2,68.0,29.85,North,0,0.0,0.0,78,0.00,,,0.02,WUHU216HW,2013-07-09 00:20:00,
2013-07-08 20:24:00,75.2,68.0,29.85,North,0,0.0,0.0,78,0.00,,,0.02,WUHU216HW,2013-07-09 00:24:00,
2013-07-08 20:26:00,75.2,67.6,29.85,North,0,0.0,0.0,77,0.00,,,0.02,WUHU216HW,2013-07-09 00:26:00,
2013-07-08 20:27:00,75.2,67.6,29.85,North,0,0.0,0.0,77,0.00,,,0.02,WUHU216HW,2013-07-09 00:27:00,
2013-07-08 20:30:00,75.1,67.4,29.85,North,0,0.0,0.0,77,0.00,,,0.02,WUHU216HW,2013-07-09 00:30:00,
2013-07-08 20:33:00,75.1,67.8,29.85,North,0,0.0,0.0,78,0.00,,,0.02,WUHU216HW,2013-07-09 00:33:00,
2013-07-08 20:35:00,74.9,67.6,29.85,North,0,0.0,0.0,78,0.00,,,0.02,WUHU216HW,2013-07-09 00:35:00,
2013-07-08 20:38:00,74.9,67.6,29.85,North,0,0.0,0.0,78,0.00,,,0.02,WUHU216HW,2013-07-09 00:38:00,
2013-07-08 20:40:00,74.9,67.6,29.85,North,0,0.0,0.0,78,0.00,,,0.02,WUHU216HW,2013-07-09 00:40:00,
2013-07-08 20:43:00,74.9,67.6,29.86,North,0,0.0,0.0,78,0.00,,,0.02,WUHU216HW,2013-07-09 00:43:00,
2013-07-08 20:45:00,74.9,68.1,29.86,North,0,0.0,0.0,79,0.00,,,0.02,WUHU216HW,2013-07-09 00:45:00,
2013-07-08 20:46:00,74.9,68.1,29.86,North,0,0.0,0.0,79,0.00,,,0.02,WUHU216HW,2013-07-09 00:46:00,
2013-07-08 20:49:00,74.9,68.1,29.86,North,0,0.0,0.0,79,0.00,,,0.02,WUHU216HW,2013-07-09 00:49:00,
2013-07-08 20:52:00,74.9,68.1,29.86,North,0,0.0,0.0,79,0.00,,,0.02,WUHU216HW,2013-07-09 00:52:00,
2013-07-08 20:53:00,74.9,68.1,29.86,North,0,0.0,0.0,79,0.00,,,0.02,WUHU216HW,2013-07-09 00:53:00,
2013-07-08 20:56:00,74.9,68.1,29.86,North,0,0.0,0.0,79,0.00,,,0.02,WUHU216HW,2013-07-09 00:56:00,
2013-07-08 20:58:00,74.9,68.1,29.86,North,0,0.0,0.0,79,0.00,,,0.02,WUHU216HW,2013-07-09 00:58:00,
2013-07-08 21:01:00,74.9,68.1,29.86,North,0,0.0,0.0,79,0.00,,,0.02,WUHU216HW,2013-07-09 01:01:00,
2013-07-08 21:02:00,74.9,68.1,29.87,North,0,0.0,0.0,79,0.00,,,0.02,WUHU216HW,2013-07-09 01:02:00,
2013-07-08 21:06:00,74.9,68.1,29.87,North,0,0.0,0.0,79,0.00,,,0.02,WUHU216HW,2013-07-09 01:06:00,
2013-07-08 21:07:00,74.9,68.1,29.87,North,0,0.0,0.0,79,0.00,,,0.02,WUHU216HW,2013-07-09 01:07:00,
2013-07-08 21:11:00,74.3,66.7,29.87,North,0,0.0,0.0,77,0.00,,,0.02,WUHU216HW,2013-07-09 01:11:00,
2013-07-08 21:12:00,74.3,66.7,29.87,North,0,0.0,0.0,77,0.00,,,0.02,WUHU216HW,2013-07-09 01:12:00,
2013-07-08 21:13:00,74.2,66.5,29.87,North,0,0.0,0.0,77,0.00,,,0.02,WUHU216HW,2013-07-09 01:13:00,
2013-07-08 21:16:00,73.4,65.4,29.87,North,0,0.0,0.0,76,0.00,,,0.02,WUHU216HW,2013-07-09 01:16:00,
2013-07-08 21:19:00,72.7,64.7,29.88,North,0,0.0,0.0,76,0.00,,,0.02,WUHU216HW,2013-07-09 01:19:00,
2013-07-08 21:22:00,72.0,64.0,29.88,North,0,0.0,0.0,76,0.00,,,0.02,WUHU216HW,2013-07-09 01:22:00,
2013-07-08 21:24:00,71.6,63.6,29.88,North,0,0.0,0.0,76,0.00,,,0.02,WUHU216HW,2013-07-09 01:24:00,
2013-07-08 21:25:00,71.6,63.6,29.88,North,0,0.0,0.0,76,0.00,,,0.02,WUHU216HW,2013-07-09 01:25:00,
2013-07-08 21:27:00,71.3,63.3,29.88,North,0,0.0,0.0,76,0.00,,,0.02,WUHU216HW,2013-07-09 01:27:00,
2013-07-08 21:29:00,71.1,63.5,29.87,North,0,0.0,0.0,77,0.00,,,0.02,WUHU216HW,2013-07-09 01:29:00,
2013-07-08 21:31:00,70.9,63.3,29.88,North,0,0.0,0.0,77,0.00,,,0.02,WUHU216HW,2013-07-09 01:31:00,
2013-07-08 21:32:00,70.7,63.1,29.88,North,0,0.0,0.0,77,0.00,,,0.02,WUHU216HW,2013-07-09 01:32:00,
2013-07-08 21:35:00,70.6,62.9,29.88,North,0,0.0,0.0,77,0.00,,,0.02,WUHU216HW,2013-07-09 01:35:00,
2013-07-08 21:36:00,70.4,62.7,29.88,North,0,0.0,0.0,77,0.00,,,0.02,WUHU216HW,2013-07-09 01:36:00,
2013-07-08 21:41:00,70.2,62.6,29.88,North,0,0.0,0.0,77,0.00,,,0.02,WUHU216HW,2013-07-09 01:41:00,
2013-07-08 21:42:00,70.2,62.6,29.88,North,0,0.0,0.0,77,0.00,,,0.02,WUHU216HW,2013-07-09 01:42:00,
2013-07-08 21:47:00,70.2,63.0,29.88,North,0,0.0,0.0,78,0.00,,,0.02,WUHU216HW,2013-07-09 01:47:00,
2013-07-08 21:53:00,70.2,63.0,29.88,North,0,0.0,0.0,78,0.00,,,0.02,WUHU216HW,2013-07-09 01:53:00,
2013-07-08 21:54:00,70.2,63.4,29.88,North,0,0.0,0.0,79,0.00,,,0.02,WUHU216HW,2013-07-09 01:54:00,
2013-07-08 21:59:00,70.4,63.6,29.88,North,0,0.0,0.0,79,0.00,,,0.02,WUHU216HW,2013-07-09 01:59:00,
2013-07-08 22:05:00,70.6,64.1,29.88,North,0,0.0,0.0,80,0.00,,,0.02,WUHU216HW,2013-07-09 02:05:00,
2013-07-08 22:07:00,70.9,64.8,29.89,North,0,0.0,0.0,81,0.00,,,0.02,WUHU216HW,2013-07-09 02:07:00,
2013-07-08 22:10:00,71.3,65.5,29.89,North,0,0.0,0.0,82,0.00,,,0.02,WUHU216HW,2013-07-09 02:10:00,
2013-07-08 22:13:00,72.0,66.9,29.89,North,0,0.0,0.0,84,0.00,,,0.02,WUHU216HW,2013-07-09 02:13:00,
2013-07-08 22:16:00,72.2,67.1,29.89,North,0,0.0,0.0,84,0.00,,,0.02,WUHU216HW,2013-07-09 02:16:00,
2013-07-08 22:19:00,72.7,67.6,29.89,North,0,0.0,0.0,84,0.00,,,0.02,WUHU216HW,2013-07-09 02:19:00,
2013-07-08 22:21:00,72.9,67.8,29.89,North,0,0.0,0.0,84,0.00,,,0.02,WUHU216HW,2013-07-09 02:21:00,
2013-07-08 22:22:00,73.1,68.3,29.89,North,0,0.0,0.0,85,0.00,,,0.02,WUHU216HW,2013-07-09 02:22:00,
2013-07-08 22:25:00,73.3,68.1,29.89,North,0,0.0,0.0,84,0.00,,,0.02,WUHU216HW,2013-07-09 02:25:00,
2013-07-08 22:27:00,73.4,68.3,29.89,North,0,0.0,0.0,84,0.00,,,0.02,WUHU216HW,2013-07-09 02:27:00,
2013-07-08 22:29:00,73.4,68.3,29.89,North,0,0.0,0.0,84,0.00,,,0.02,WUHU216HW,2013-07-09 02:29:00,
2013-07-08 22:32:00,73.4,68.7,29.89,North,0,0.0,0.0,85,0.00,,,0.02,WUHU216HW,2013-07-09 02:32:00,
2013-07-08 22:33:00,73.4,68.3,29.89,North,0,0.0,0.0,84,0.00,,,0.02,WUHU216HW,2013-07-09 02:33:00,
2013-07-08 22:37:00,73.6,68.5,29.89,North,0,0.0,0.0,84,0.00,,,0.02,WUHU216HW,2013-07-09 02:37:00,
2013-07-08 22:38:00,73.6,68.5,29.89,North,0,0.0,0.0,84,0.00,,,0.02,WUHU216HW,2013-07-09 02:38:00,
2013-07-08 22:39:00,73.8,69.0,29.89,North,0,0.0,0.0,85,0.00,,,0.02,WUHU216HW,2013-07-09 02:39:00,
2013-07-08 22:42:00,73.8,68.7,29.89,North,0,0.0,0.0,84,0.00,,,0.02,WUHU216HW,2013-07-09 02:42:00,
2013-07-08 22:44:00,73.8,68.7,29.89,North,0,0.0,0.0,84,0.00,,,0.02,WUHU216HW,2013-07-09 02:44:00,
2013-07-08 22:47:00,73.8,68.7,29.89,North,0,0.0,0.0,84,0.00,,,0.02,WUHU216HW,2013-07-09 02:47:00,
2013-07-08 22:49:00,74.0,69.2,29.89,North,0,0.0,0.0,85,0.00,,,0.02,WUHU216HW,2013-07-09 02:49:00,
2013-07-08 22:50:00,74.0,68.9,29.88,North,0,0.0,0.0,84,0.00,,,0.02,WUHU216HW,2013-07-09 02:50:00,
2013-07-08 22:52:00,73.8,69.0,29.89,North,0,0.0,0.0,85,0.00,,,0.02,WUHU216HW,2013-07-09 02:52:00,
2013-07-08 22:54:00,74.0,68.9,29.89,North,0,0.0,0.0,84,0.00,,,0.02,WUHU216HW,2013-07-09 02:54:00,
2013-07-08 22:55:00,74.0,69.2,29.89,North,0,0.0,0.0,85,0.00,,,0.02,WUHU216HW,2013-07-09 02:55:00,
2013-07-08 22:58:00,74.0,69.2,29.89,North,0,0.0,0.0,85,0.00,,,0.02,WUHU216HW,2013-07-09 02:58:00,
2013-07-08 23:00:00,73.8,69.0,29.89,North,0,0.0,0.0,85,0.00,,,0.02,WUHU216HW,2013-07-09 03:00:00,
2013-07-08 23:01:00,73.8,69.0,29.89,North,0,0.0,0.0,85,0.00,,,0.02,WUHU216HW,2013-07-09 03:01:00,
2013-07-08 23:05:00,73.8,69.0,29.89,North,0,0.0,0.0,85,0.00,,,0.02,WUHU216HW,2013-07-09 03:05:00,
2013-07-08 23:07:00,73.8,69.0,29.89,North,0,0.0,0.0,85,0.00,,,0.02,WUHU216HW,2013-07-09 03:07:00,
2013-07-08 23:11:00,73.8,69.0,29.88,North,0,0.0,0.0,85,0.00,,,0.02,WUHU216HW,2013-07-09 03:11:00,
2013-07-08 23:15:00,73.8,69.0,29.88,North,0,0.0,0.0,85,0.00,,,0.02,WUHU216HW,2013-07-09 03:15:00,
2013-07-08 23:16:00,73.8,69.0,29.89,North,0,0.0,0.0,85,0.00,,,0.02,WUHU216HW,2013-07-09 03:16:00,
2013-07-08 23:17:00,73.8,69.0,29.88,North,0,0.0,0.0,85,0.00,,,0.02,WUHU216HW,2013-07-09 03:17:00,
2013-07-08 23:21:00,73.8,69.0,29.88,North,0,0.0,0.0,85,0.00,,,0.02,WUHU216HW,2013-07-09 03:21:00,
2013-07-08 23:23:00,73.8,69.0,29.88,North,0,0.0,0.0,85,0.00,,,0.02,WUHU216HW,2013-07-09 03:23:00,
2013-07-08 23:26:00,73.6,68.9,29.88,North,0,0.0,0.0,85,0.00,,,0.02,WUHU216HW,2013-07-09 03:26:00,
2013-07-08 23:31:00,73.6,68.9,29.88,North,0,0.0,0.0,85,0.00,,,0.02,WUHU216HW,2013-07-09 03:31:00,
2013-07-08 23:32:00,73.6,68.9,29.88,North,0,0.0,0.0,85,0.00,,,0.02,WUHU216HW,2013-07-09 03:32:00,
2013-07-08 23:36:00,73.6,68.9,29.88,North,0,0.0,0.0,85,0.00,,,0.02,WUHU216HW,2013-07-09 03:36:00,
2013-07-08 23:37:00,73.6,68.9,29.88,North,0,0.0,0.0,85,0.00,,,0.02,WUHU216HW,2013-07-09 03:37:00,
2013-07-08 23:38:00,73.6,68.9,29.88,North,0,0.0,0.0,85,0.00,,,0.02,WUHU216HW,2013-07-09 03:38:00,
2013-07-08 23:42:00,73.6,68.5,29.88,North,0,0.0,0.0,84,0.00,,,0.02,WUHU216HW,2013-07-09 03:42:00,
2013-07-08 23:43:00,73.6,68.5,29.88,North,0,0.0,0.0,84,0.00,,,0.02,WUHU216HW,2013-07-09 03:43:00,
2013-07-08 23:44:00,73.6,68.9,29.88,North,0,0.0,0.0,85,0.00,,,0.02,WUHU216HW,2013-07-09 03:44:00,
2013-07-08 23:47:00,73.6,68.9,29.88,North,0,0.0,0.0,85,0.00,,,0.02,WUHU216HW,2013-07-09 03:47:00,
2013-07-08 23:49:00,73.8,69.0,29.88,North,0,0.0,0.0,85,0.00,,,0.02,WUHU216HW,2013-07-09 03:49:00,
2013-07-08 23:50:00,73.8,69.0,29.88,North,0,0.0,0.0,85,0.00,,,0.02,WUHU216HW,2013-07-09 03:50:00,
2013-07-08 23:53:00,73.8,69.0,29.89,North,0,0.0,0.0,85,0.00,,,0.02,WUHU216HW,2013-07-09 03:53:00,
2013-07-08 23:54:00,73.8,69.0,29.89,North,0,0.0,0.0,85,0.00,,,0.02,WUHU216HW,2013-07-09 03:54:00,
2013-07-08 23:57:00,73.8,69.0,29.89,North,0,0.0,0.0,85,0.00,,,0.02,WUHU216HW,2013-07-09 03:57:00,